Wetterdaten: Sonntag, 19.06.2016
Datum Zeit Temp. A. Feuchte A. Luftdruck Regen Wind Richtung Richtung Sonnenschein ET UV Solar Taupunkt Windchill Windben Empfang
19.06.2016 00:00 13,5 C 93 % 1017,3 hPa 0,0 l/m 0,0 km/h (0 Bft) W 275 0 min 0,000 mm 0,0 UV-I 0 W/m 12,4 C 13,5 C 0,0 km/h (0 Bft) 100,00 %
19.06.2016 00:02 13,5 C 93 % 1017,3 hPa 0,0 l/m 0,0 km/h (0 Bft) W 275 0 min 0,000 mm 0,0 UV-I 0 W/m 12,4 C 13,5 C 1,6 km/h (1 Bft) 6,25 %
19.06.2016 00:04 13,5 C 93 % 1017,4 hPa 0,0 l/m 1,3 km/h (1 Bft) W 275 0 min 0,000 mm 0,0 UV-I 0 W/m 12,4 C 13,5 C 4,8 km/h (1 Bft) 88,89 %
19.06.2016 00:06 13,5 C 93 % 1017,3 hPa 0,0 l/m 3,1 km/h (1 Bft) W 275 0 min 0,000 mm 0,0 UV-I 0 W/m 12,4 C 13,5 C 4,8 km/h (1 Bft) 98,00 %
19.06.2016 00:08 13,5 C 93 % 1017,3 hPa 0,0 l/m 2,0 km/h (1 Bft) W 275 0 min 0,000 mm 0,0 UV-I 0 W/m 12,4 C 13,5 C 3,2 km/h (1 Bft) 97,37 %
19.06.2016 00:10 13,5 C 93 % 1017,3 hPa 0,0 l/m 3,0 km/h (1 Bft) W 274 0 min 0,000 mm 0,0 UV-I 0 W/m 12,4 C 13,5 C 4,8 km/h (1 Bft) 100,00 %
19.06.2016 00:12 13,4 C 93 % 1017,3 hPa 0,0 l/m 2,9 km/h (1 Bft) W 274 0 min 0,000 mm 0,0 UV-I 0 W/m 12,3 C 13,4 C 4,8 km/h (1 Bft) 100,00 %
19.06.2016 00:14 13,4 C 93 % 1017,3 hPa 0,0 l/m 2,7 km/h (1 Bft) W 274 0 min 0,000 mm 0,0 UV-I 0 W/m 12,3 C 13,4 C 4,8 km/h (1 Bft) 100,00 %
19.06.2016 00:16 13,4 C 93 % 1017,3 hPa 0,0 l/m 2,4 km/h (1 Bft) W 274 0 min 0,000 mm 0,0 UV-I 0 W/m 12,3 C 13,4 C 4,8 km/h (1 Bft) 97,87 %
19.06.2016 00:18 13,4 C 93 % 1017,3 hPa 0,0 l/m 2,3 km/h (1 Bft) W 274 0 min 0,000 mm 0,0 UV-I 0 W/m 12,3 C 13,4 C 3,2 km/h (1 Bft) 97,87 %
19.06.2016 00:20 13,4 C 93 % 1017,2 hPa 0,0 l/m 2,3 km/h (1 Bft) W 274 0 min 0,000 mm 0,0 UV-I 0 W/m 12,3 C 13,4 C 3,2 km/h (1 Bft) 97,87 %
19.06.2016 00:22 13,4 C 93 % 1017,3 hPa 0,0 l/m 2,0 km/h (1 Bft) W 274 0 min 0,000 mm 0,0 UV-I 0 W/m 12,3 C 13,4 C 3,2 km/h (1 Bft) 95,74 %
19.06.2016 00:24 13,4 C 93 % 1017,2 hPa 0,0 l/m 1,5 km/h (1 Bft) W 274 0 min 0,000 mm 0,0 UV-I 0 W/m 12,3 C 13,4 C 3,2 km/h (1 Bft) 97,87 %
19.06.2016 00:26 13,4 C 93 % 1017,2 hPa 0,0 l/m 0,8 km/h (0 Bft) W-SW 252 0 min 0,000 mm 0,0 UV-I 0 W/m 12,3 C 13,4 C 3,2 km/h (1 Bft) 95,74 %
19.06.2016 00:28 13,4 C 93 % 1017,2 hPa 0,0 l/m 1,3 km/h (1 Bft) SW 236 0 min 0,000 mm 0,0 UV-I 0 W/m 12,3 C 13,4 C 3,2 km/h (1 Bft) 100,00 %
19.06.2016 00:30 13,4 C 93 % 1017,2 hPa 0,0 l/m 0,6 km/h (0 Bft) SW 236 0 min 0,000 mm 0,0 UV-I 0 W/m 12,3 C 13,4 C 1,6 km/h (1 Bft) 100,00 %
19.06.2016 00:32 13,3 C 93 % 1017,1 hPa 0,0 l/m 2,0 km/h (1 Bft) SW 236 0 min 0,000 mm 0,0 UV-I 0 W/m 12,2 C 13,3 C 3,2 km/h (1 Bft) 100,00 %
19.06.2016 00:34 13,3 C 93 % 1017,1 hPa 0,0 l/m 3,7 km/h (1 Bft) SW 234 0 min 0,000 mm 0,0 UV-I 0 W/m 12,2 C 13,3 C 4,8 km/h (1 Bft) 98,00 %
19.06.2016 00:36 13,3 C 93 % 1017,1 hPa 0,0 l/m 4,1 km/h (1 Bft) S-SW 199 0 min 0,000 mm 0,0 UV-I 0 W/m 12,2 C 13,3 C 6,4 km/h (2 Bft) 100,00 %
19.06.2016 00:38 13,3 C 93 % 1017,1 hPa 0,0 l/m 3,1 km/h (1 Bft) S-SW 199 0 min 0,000 mm 0,0 UV-I 0 W/m 12,2 C 13,3 C 4,8 km/h (1 Bft) 97,87 %
19.06.2016 00:40 13,2 C 93 % 1017,1 hPa 0,0 l/m 1,8 km/h (1 Bft) S-SW 198 0 min 0,000 mm 0,0 UV-I 0 W/m 12,1 C 13,2 C 3,2 km/h (1 Bft) 100,00 %
19.06.2016 00:42 13,3 C 93 % 1017,1 hPa 0,0 l/m 1,2 km/h (1 Bft) S-SW 198 0 min 0,000 mm 0,0 UV-I 0 W/m 12,2 C 13,3 C 3,2 km/h (1 Bft) 97,87 %
19.06.2016 00:44 13,2 C 93 % 1017,1 hPa 0,0 l/m 1,9 km/h (1 Bft) S-SW 198 0 min 0,000 mm 0,0 UV-I 0 W/m 12,1 C 13,2 C 3,2 km/h (1 Bft) 97,87 %
19.06.2016 00:46 13,2 C 93 % 1017,1 hPa 0,0 l/m 1,0 km/h (0 Bft) S-SW 198 0 min 0,000 mm 0,0 UV-I 0 W/m 12,1 C 13,2 C 3,2 km/h (1 Bft) 100,00 %
19.06.2016 00:48 13,2 C 93 % 1017,2 hPa 0,0 l/m 1,3 km/h (1 Bft) S-SW 198 0 min 0,000 mm 0,0 UV-I 0 W/m 12,1 C 13,2 C 3,2 km/h (1 Bft) 100,00 %
19.06.2016 00:50 13,2 C 93 % 1017,2 hPa 0,0 l/m 2,5 km/h (1 Bft) S-SW 198 0 min 0,000 mm 0,0 UV-I 0 W/m 12,1 C 13,2 C 4,8 km/h (1 Bft) 100,00 %
19.06.2016 00:52 13,2 C 93 % 1017,2 hPa 0,0 l/m 3,0 km/h (1 Bft) S-SW 198 0 min 0,000 mm 0,0 UV-I 0 W/m 12,1 C 13,2 C 4,8 km/h (1 Bft) 100,00 %
19.06.2016 00:54 13,2 C 93 % 1017,2 hPa 0,0 l/m 1,8 km/h (1 Bft) S-SW 198 0 min 0,000 mm 0,0 UV-I 0 W/m 12,1 C 13,2 C 3,2 km/h (1 Bft) 100,00 %
19.06.2016 00:56 13,2 C 93 % 1017,2 hPa 0,0 l/m 0,1 km/h (0 Bft) S-SW 198 0 min 0,000 mm 0,0 UV-I 0 W/m 12,1 C 13,2 C 1,6 km/h (1 Bft) 97,87 %
19.06.2016 00:58 13,2 C 93 % 1017,2 hPa 0,0 l/m 1,6 km/h (1 Bft) S-SW 198 0 min 0,000 mm 0,0 UV-I 0 W/m 12,1 C 13,2 C 4,8 km/h (1 Bft) 95,74 %
19.06.2016 01:00 13,2 C 93 % 1017,2 hPa 0,0 l/m 2,8 km/h (1 Bft) S-SW 198 0 min 0,000 mm 0,0 UV-I 0 W/m 12,1 C 13,2 C 4,8 km/h (1 Bft) 100,00 %
19.06.2016 01:02 13,2 C 93 % 1017,2 hPa 0,0 l/m 0,2 km/h (0 Bft) S-SW 198 0 min 0,000 mm 0,0 UV-I 0 W/m 12,1 C 13,2 C 1,6 km/h (1 Bft) 100,00 %
19.06.2016 01:04 13,2 C 93 % 1017,2 hPa 0,0 l/m 1,6 km/h (1 Bft) S-SW 198 0 min 0,000 mm 0,0 UV-I 0 W/m 12,1 C 13,2 C 4,8 km/h (1 Bft) 97,87 %
19.06.2016 01:06 13,2 C 93 % 1017,2 hPa 0,0 l/m 2,5 km/h (1 Bft) S-SW 198 0 min 0,000 mm 0,0 UV-I 0 W/m 12,1 C 13,2 C 4,8 km/h (1 Bft) 100,00 %
19.06.2016 01:08 13,2 C 93 % 1017,3 hPa 0,0 l/m 2,0 km/h (1 Bft) S-SW 198 0 min 0,000 mm 0,0 UV-I 0 W/m 12,1 C 13,2 C 4,8 km/h (1 Bft) 100,00 %
19.06.2016 01:10 13,2 C 93 % 1017,2 hPa 0,0 l/m 1,8 km/h (1 Bft) S-SW 197 0 min 0,000 mm 0,0 UV-I 0 W/m 12,1 C 13,2 C 4,8 km/h (1 Bft) 97,87 %
19.06.2016 01:12 13,2 C 93 % 1017,2 hPa 0,0 l/m 1,1 km/h (1 Bft) S-SW 197 0 min 0,000 mm 0,0 UV-I 0 W/m 12,1 C 13,2 C 3,2 km/h (1 Bft) 100,00 %
19.06.2016 01:14 13,2 C 93 % 1017,2 hPa 0,0 l/m 2,1 km/h (1 Bft) S-SW 194 0 min 0,000 mm 0,0 UV-I 0 W/m 12,1 C 13,2 C 4,8 km/h (1 Bft) 100,00 %
19.06.2016 01:16 13,2 C 93 % 1017,3 hPa 0,0 l/m 3,1 km/h (1 Bft) S 186 0 min 0,000 mm 0,0 UV-I 0 W/m 12,1 C 13,2 C 4,8 km/h (1 Bft) 100,00 %
19.06.2016 01:18 13,2 C 93 % 1017,2 hPa 0,0 l/m 4,0 km/h (1 Bft) S 182 0 min 0,000 mm 0,0 UV-I 0 W/m 12,1 C 13,2 C 6,4 km/h (2 Bft) 95,74 %
19.06.2016 01:20 13,2 C 93 % 1017,2 hPa 0,0 l/m 4,2 km/h (1 Bft) S 181 0 min 0,000 mm 0,0 UV-I 0 W/m 12,1 C 13,2 C 6,4 km/h (2 Bft) 100,00 %
19.06.2016 01:22 13,2 C 93 % 1017,2 hPa 0,0 l/m 3,8 km/h (1 Bft) S 181 0 min 0,000 mm 0,0 UV-I 0 W/m 12,1 C 13,2 C 4,8 km/h (1 Bft) 100,00 %
19.06.2016 01:24 13,2 C 93 % 1017,2 hPa 0,0 l/m 4,5 km/h (1 Bft) S 182 0 min 0,000 mm 0,0 UV-I 0 W/m 12,1 C 13,2 C 8,0 km/h (2 Bft) 97,87 %
19.06.2016 01:26 13,2 C 93 % 1017,2 hPa 0,0 l/m 5,3 km/h (1 Bft) S 176 0 min 0,000 mm 0,0 UV-I 0 W/m 12,1 C 13,2 C 8,0 km/h (2 Bft) 97,87 %
19.06.2016 01:28 13,2 C 93 % 1017,2 hPa 0,0 l/m 6,6 km/h (2 Bft) S 182 0 min 0,000 mm 0,0 UV-I 0 W/m 12,1 C 13,1 C 9,7 km/h (2 Bft) 94,29 %
19.06.2016 01:30 13,2 C 93 % 1017,2 hPa 0,0 l/m 4,7 km/h (1 Bft) S 186 0 min 0,000 mm 0,0 UV-I 0 W/m 12,1 C 13,2 C 8,0 km/h (2 Bft) 97,87 %
19.06.2016 01:32 13,2 C 93 % 1017,2 hPa 0,0 l/m 5,4 km/h (1 Bft) S 174 0 min 0,000 mm 0,0 UV-I 0 W/m 12,1 C 13,2 C 9,7 km/h (2 Bft) 93,75 %
19.06.2016 01:34 13,2 C 94 % 1017,2 hPa 0,0 l/m 6,7 km/h (2 Bft) S-SO 166 0 min 0,000 mm 0,0 UV-I 0 W/m 12,3 C 13,0 C 12,9 km/h (3 Bft) 96,00 %
19.06.2016 01:36 13,2 C 94 % 1017,2 hPa 0,0 l/m 5,0 km/h (1 Bft) S 173 0 min 0,000 mm 0,0 UV-I 0 W/m 12,3 C 13,2 C 8,0 km/h (2 Bft) 95,74 %
19.06.2016 01:38 13,2 C 94 % 1017,2 hPa 0,0 l/m 3,7 km/h (1 Bft) S 191 0 min 0,000 mm 0,0 UV-I 0 W/m 12,3 C 13,2 C 6,4 km/h (2 Bft) 97,87 %
19.06.2016 01:40 13,3 C 93 % 1017,2 hPa 0,0 l/m 3,7 km/h (1 Bft) S 174 0 min 0,000 mm 0,0 UV-I 0 W/m 12,2 C 13,3 C 8,0 km/h (2 Bft) 97,87 %
19.06.2016 01:42 13,3 C 93 % 1017,2 hPa 0,0 l/m 4,5 km/h (1 Bft) S 182 0 min 0,000 mm 0,0 UV-I 0 W/m 12,2 C 13,3 C 8,0 km/h (2 Bft) 95,74 %
19.06.2016 01:44 13,3 C 93 % 1017,2 hPa 0,0 l/m 4,6 km/h (1 Bft) S 183 0 min 0,000 mm 0,0 UV-I 0 W/m 12,2 C 13,3 C 6,4 km/h (2 Bft) 95,74 %
19.06.2016 01:46 13,3 C 93 % 1017,2 hPa 0,0 l/m 4,7 km/h (1 Bft) S 180 0 min 0,000 mm 0,0 UV-I 0 W/m 12,2 C 13,3 C 8,0 km/h (2 Bft) 97,87 %
19.06.2016 01:48 13,3 C 93 % 1017,2 hPa 0,0 l/m 5,7 km/h (1 Bft) S 173 0 min 0,000 mm 0,0 UV-I 0 W/m 12,2 C 13,3 C 9,7 km/h (2 Bft) 95,74 %
19.06.2016 01:50 13,3 C 93 % 1017,2 hPa 0,0 l/m 5,2 km/h (1 Bft) S 178 0 min 0,000 mm 0,0 UV-I 0 W/m 12,2 C 13,3 C 9,7 km/h (2 Bft) 97,87 %
19.06.2016 01:52 13,3 C 93 % 1017,2 hPa 0,0 l/m 6,7 km/h (2 Bft) S-SW 195 0 min 0,000 mm 0,0 UV-I 0 W/m 12,2 C 13,1 C 9,7 km/h (2 Bft) 93,62 %
19.06.2016 01:54 13,3 C 93 % 1017,2 hPa 0,0 l/m 7,0 km/h (2 Bft) S 186 0 min 0,000 mm 0,0 UV-I 0 W/m 12,2 C 12,9 C 9,7 km/h (2 Bft) 98,00 %
19.06.2016 01:56 13,3 C 93 % 1017,2 hPa 0,0 l/m 6,1 km/h (2 Bft) S 184 0 min 0,000 mm 0,0 UV-I 0 W/m 12,2 C 13,3 C 9,7 km/h (2 Bft) 97,87 %
19.06.2016 01:58 13,3 C 93 % 1017,2 hPa 0,0 l/m 5,9 km/h (2 Bft) S 178 0 min 0,000 mm 0,0 UV-I 0 W/m 12,2 C 13,3 C 9,7 km/h (2 Bft) 100,00 %
19.06.2016 02:00 13,3 C 93 % 1017,3 hPa 0,0 l/m 5,6 km/h (1 Bft) S-SW 207 0 min 0,000 mm 0,0 UV-I 0 W/m 12,2 C 13,3 C 8,0 km/h (2 Bft) 95,74 %
19.06.2016 02:02 13,3 C 93 % 1017,3 hPa 0,0 l/m 4,5 km/h (1 Bft) S 178 0 min 0,000 mm 0,0 UV-I 0 W/m 12,2 C 13,3 C 8,0 km/h (2 Bft) 97,87 %
19.06.2016 02:04 13,3 C 93 % 1017,3 hPa 0,0 l/m 3,3 km/h (1 Bft) S 186 0 min 0,000 mm 0,0 UV-I 0 W/m 12,2 C 13,3 C 4,8 km/h (1 Bft) 97,87 %
19.06.2016 02:06 13,3 C 93 % 1017,3 hPa 0,0 l/m 3,5 km/h (1 Bft) S-SW 202 0 min 0,000 mm 0,0 UV-I 0 W/m 12,2 C 13,3 C 4,8 km/h (1 Bft) 100,00 %
19.06.2016 02:08 13,3 C 93 % 1017,3 hPa 0,0 l/m 5,6 km/h (1 Bft) S-SW 204 0 min 0,000 mm 0,0 UV-I 0 W/m 12,2 C 13,3 C 8,0 km/h (2 Bft) 100,00 %
19.06.2016 02:10 13,3 C 93 % 1017,3 hPa 0,0 l/m 5,2 km/h (1 Bft) SW 225 0 min 0,000 mm 0,0 UV-I 0 W/m 12,2 C 13,3 C 8,0 km/h (2 Bft) 100,00 %
19.06.2016 02:12 13,3 C 93 % 1017,3 hPa 0,0 l/m 4,1 km/h (1 Bft) SW 229 0 min 0,000 mm 0,0 UV-I 0 W/m 12,2 C 13,3 C 6,4 km/h (2 Bft) 100,00 %
19.06.2016 02:14 13,3 C 93 % 1017,3 hPa 0,0 l/m 4,4 km/h (1 Bft) S-SW 213 0 min 0,000 mm 0,0 UV-I 0 W/m 12,2 C 13,3 C 6,4 km/h (2 Bft) 100,00 %
19.06.2016 02:16 13,3 C 93 % 1017,3 hPa 0,0 l/m 6,2 km/h (2 Bft) W-SW 249 0 min 0,000 mm 0,0 UV-I 0 W/m 12,2 C 13,3 C 9,7 km/h (2 Bft) 100,00 %
19.06.2016 02:18 13,3 C 93 % 1017,4 hPa 0,0 l/m 5,5 km/h (1 Bft) W-SW 252 0 min 0,000 mm 0,0 UV-I 0 W/m 12,2 C 13,3 C 8,0 km/h (2 Bft) 97,87 %
19.06.2016 02:20 13,3 C 93 % 1017,4 hPa 0,0 l/m 9,0 km/h (2 Bft) W-SW 243 0 min 0,000 mm 0,0 UV-I 0 W/m 12,2 C 11,8 C 12,9 km/h (3 Bft) 100,00 %
19.06.2016 02:22 13,3 C 93 % 1017,4 hPa 0,0 l/m 6,7 km/h (2 Bft) W-SW 241 0 min 0,000 mm 0,0 UV-I 0 W/m 12,2 C 13,1 C 12,9 km/h (3 Bft) 97,87 %
19.06.2016 02:24 13,3 C 93 % 1017,3 hPa 0,0 l/m 5,9 km/h (2 Bft) S-SW 198 0 min 0,000 mm 0,0 UV-I 0 W/m 12,2 C 13,3 C 9,7 km/h (2 Bft) 100,00 %
19.06.2016 02:26 13,3 C 93 % 1017,3 hPa 0,0 l/m 7,4 km/h (2 Bft) S 172 0 min 0,000 mm 0,0 UV-I 0 W/m 12,2 C 12,7 C 9,7 km/h (2 Bft) 100,00 %
19.06.2016 02:28 13,2 C 93 % 1017,3 hPa 0,0 l/m 7,7 km/h (2 Bft) W-SW 238 0 min 0,000 mm 0,0 UV-I 0 W/m 12,1 C 12,4 C 11,3 km/h (2 Bft) 100,00 %
19.06.2016 02:30 13,2 C 93 % 1017,3 hPa 0,0 l/m 6,7 km/h (2 Bft) S-SW 211 0 min 0,000 mm 0,0 UV-I 0 W/m 12,1 C 13,0 C 12,9 km/h (3 Bft) 94,74 %
19.06.2016 02:32 13,2 C 93 % 1017,3 hPa 0,0 l/m 8,1 km/h (2 Bft) SW 215 0 min 0,000 mm 0,0 UV-I 0 W/m 12,1 C 12,2 C 12,9 km/h (3 Bft) 98,11 %
19.06.2016 02:34 13,2 C 93 % 1017,3 hPa 0,0 l/m 5,3 km/h (1 Bft) SW 236 0 min 0,000 mm 0,0 UV-I 0 W/m 12,1 C 13,2 C 8,0 km/h (2 Bft) 100,00 %
19.06.2016 02:36 13,2 C 93 % 1017,4 hPa 0,0 l/m 5,2 km/h (1 Bft) SW 229 0 min 0,000 mm 0,0 UV-I 0 W/m 12,1 C 13,2 C 8,0 km/h (2 Bft) 97,87 %
19.06.2016 02:38 13,2 C 93 % 1017,3 hPa 0,0 l/m 5,5 km/h (1 Bft) SW 222 0 min 0,000 mm 0,0 UV-I 0 W/m 12,1 C 13,2 C 8,0 km/h (2 Bft) 100,00 %
19.06.2016 02:40 13,2 C 93 % 1017,3 hPa 0,0 l/m 6,3 km/h (2 Bft) W-SW 241 0 min 0,000 mm 0,0 UV-I 0 W/m 12,1 C 13,2 C 8,0 km/h (2 Bft) 97,87 %
19.06.2016 02:42 13,1 C 93 % 1017,3 hPa 0,0 l/m 6,0 km/h (2 Bft) SW 233 0 min 0,000 mm 0,0 UV-I 0 W/m 12,0 C 13,1 C 9,7 km/h (2 Bft) 95,74 %
19.06.2016 02:44 13,1 C 93 % 1017,3 hPa 0,0 l/m 7,2 km/h (2 Bft) SW 219 0 min 0,000 mm 0,0 UV-I 0 W/m 12,0 C 12,6 C 9,7 km/h (2 Bft) 97,87 %
19.06.2016 02:46 13,1 C 94 % 1017,3 hPa 0,0 l/m 5,8 km/h (2 Bft) SW 227 0 min 0,000 mm 0,0 UV-I 0 W/m 12,2 C 13,1 C 8,0 km/h (2 Bft) 100,00 %
19.06.2016 02:48 13,1 C 94 % 1017,3 hPa 0,0 l/m 5,0 km/h (1 Bft) S-SW 198 0 min 0,000 mm 0,0 UV-I 0 W/m 12,2 C 13,1 C 8,0 km/h (2 Bft) 97,87 %
19.06.2016 02:50 13,1 C 94 % 1017,3 hPa 0,0 l/m 3,4 km/h (1 Bft) S-SW 198 0 min 0,000 mm 0,0 UV-I 0 W/m 12,2 C 13,1 C 4,8 km/h (1 Bft) 100,00 %
19.06.2016 02:52 13,1 C 94 % 1017,3 hPa 0,0 l/m 3,9 km/h (1 Bft) S 184 0 min 0,000 mm 0,0 UV-I 0 W/m 12,2 C 13,1 C 8,0 km/h (2 Bft) 100,00 %
19.06.2016 02:54 13,1 C 94 % 1017,3 hPa 0,0 l/m 3,8 km/h (1 Bft) S-SO 164 0 min 0,000 mm 0,0 UV-I 0 W/m 12,2 C 13,1 C 6,4 km/h (2 Bft) 97,87 %
19.06.2016 02:56 13,1 C 94 % 1017,3 hPa 0,0 l/m 5,0 km/h (1 Bft) S-SW 212 0 min 0,000 mm 0,0 UV-I 0 W/m 12,2 C 13,1 C 11,3 km/h (2 Bft) 94,87 %
19.06.2016 02:58 13,1 C 94 % 1017,3 hPa 0,0 l/m 7,0 km/h (2 Bft) SW 224 0 min 0,000 mm 0,0 UV-I 0 W/m 12,2 C 12,7 C 11,3 km/h (2 Bft) 100,00 %
19.06.2016 03:00 13,1 C 94 % 1017,3 hPa 0,0 l/m 6,7 km/h (2 Bft) S-SW 209 0 min 0,000 mm 0,0 UV-I 0 W/m 12,2 C 12,9 C 12,9 km/h (3 Bft) 95,74 %
19.06.2016 03:02 13,1 C 94 % 1017,3 hPa 0,0 l/m 6,0 km/h (2 Bft) S 186 0 min 0,000 mm 0,0 UV-I 0 W/m 12,2 C 13,1 C 9,7 km/h (2 Bft) 97,87 %
19.06.2016 03:04 13,1 C 93 % 1017,3 hPa 0,0 l/m 4,7 km/h (1 Bft) S-SW 202 0 min 0,000 mm 0,0 UV-I 0 W/m 12,0 C 13,1 C 6,4 km/h (2 Bft) 100,00 %
19.06.2016 03:06 13,1 C 93 % 1017,2 hPa 0,0 l/m 6,1 km/h (2 Bft) SW 215 0 min 0,000 mm 0,0 UV-I 0 W/m 12,0 C 13,1 C 9,7 km/h (2 Bft) 100,00 %
19.06.2016 03:08 13,1 C 93 % 1017,2 hPa 0,0 l/m 4,9 km/h (1 Bft) S-SW 211 0 min 0,000 mm 0,0 UV-I 0 W/m 12,0 C 13,1 C 8,0 km/h (2 Bft) 97,87 %
19.06.2016 03:10 13,0 C 93 % 1017,2 hPa 0,0 l/m 3,6 km/h (1 Bft) SW 223 0 min 0,000 mm 0,0 UV-I 0 W/m 11,9 C 13,0 C 4,8 km/h (1 Bft) 97,87 %
19.06.2016 03:12 13,1 C 93 % 1017,3 hPa 0,0 l/m 4,8 km/h (1 Bft) SW 226 0 min 0,000 mm 0,0 UV-I 0 W/m 12,0 C 13,1 C 6,4 km/h (2 Bft) 100,00 %
19.06.2016 03:14 13,0 C 93 % 1017,2 hPa 0,0 l/m 4,2 km/h (1 Bft) SW 226 0 min 0,000 mm 0,0 UV-I 0 W/m 11,9 C 13,0 C 6,4 km/h (2 Bft) 98,00 %
19.06.2016 03:16 13,0 C 93 % 1017,2 hPa 0,0 l/m 2,7 km/h (1 Bft) SW 229 0 min 0,000 mm 0,0 UV-I 0 W/m 11,9 C 13,0 C 4,8 km/h (1 Bft) 97,87 %
19.06.2016 03:18 13,0 C 93 % 1017,2 hPa 0,0 l/m 1,8 km/h (1 Bft) SW 229 0 min 0,000 mm 0,0 UV-I 0 W/m 11,9 C 13,0 C 3,2 km/h (1 Bft) 100,00 %
19.06.2016 03:20 13,1 C 93 % 1017,2 hPa 0,0 l/m 2,3 km/h (1 Bft) SW 229 0 min 0,000 mm 0,0 UV-I 0 W/m 12,0 C 13,1 C 3,2 km/h (1 Bft) 100,00 %
19.06.2016 03:22 13,1 C 93 % 1017,2 hPa 0,0 l/m 3,2 km/h (1 Bft) SW 231 0 min 0,000 mm 0,0 UV-I 0 W/m 12,0 C 13,1 C 4,8 km/h (1 Bft) 98,00 %
19.06.2016 03:24 13,1 C 93 % 1017,2 hPa 0,0 l/m 4,9 km/h (1 Bft) W-SW 248 0 min 0,000 mm 0,0 UV-I 0 W/m 12,0 C 13,1 C 8,0 km/h (2 Bft) 95,92 %
19.06.2016 03:26 13,1 C 93 % 1017,2 hPa 0,0 l/m 5,6 km/h (1 Bft) SW 223 0 min 0,000 mm 0,0 UV-I 0 W/m 12,0 C 13,1 C 8,0 km/h (2 Bft) 97,50 %
19.06.2016 03:28 13,1 C 93 % 1017,2 hPa 0,0 l/m 5,8 km/h (2 Bft) W-SW 239 0 min 0,000 mm 0,0 UV-I 0 W/m 12,0 C 13,1 C 8,0 km/h (2 Bft) 97,87 %
19.06.2016 03:30 13,1 C 93 % 1017,3 hPa 0,0 l/m 6,6 km/h (2 Bft) SW 215 0 min 0,000 mm 0,0 UV-I 0 W/m 12,0 C 13,0 C 11,3 km/h (2 Bft) 93,62 %
19.06.2016 03:32 13,1 C 93 % 1017,3 hPa 0,0 l/m 6,8 km/h (2 Bft) SW 217 0 min 0,000 mm 0,0 UV-I 0 W/m 12,0 C 12,9 C 9,7 km/h (2 Bft) 98,00 %
19.06.2016 03:34 13,0 C 93 % 1017,3 hPa 0,0 l/m 7,4 km/h (2 Bft) W-SW 242 0 min 0,000 mm 0,0 UV-I 0 W/m 11,9 C 12,4 C 12,9 km/h (3 Bft) 97,37 %
19.06.2016 03:36 13,0 C 93 % 1017,3 hPa 0,0 l/m 5,6 km/h (1 Bft) S-SW 198 0 min 0,000 mm 0,0 UV-I 0 W/m 11,9 C 13,0 C 9,7 km/h (2 Bft) 98,00 %
19.06.2016 03:38 13,0 C 93 % 1017,3 hPa 0,0 l/m 6,6 km/h (2 Bft) SW 234 0 min 0,000 mm 0,0 UV-I 0 W/m 11,9 C 12,9 C 9,7 km/h (2 Bft) 93,62 %
19.06.2016 03:40 13,0 C 93 % 1017,3 hPa 0,0 l/m 6,5 km/h (2 Bft) S-SW 213 0 min 0,000 mm 0,0 UV-I 0 W/m 11,9 C 13,0 C 9,7 km/h (2 Bft) 98,00 %
19.06.2016 03:42 13,0 C 93 % 1017,3 hPa 0,0 l/m 7,1 km/h (2 Bft) SW 218 0 min 0,000 mm 0,0 UV-I 0 W/m 11,9 C 12,6 C 9,7 km/h (2 Bft) 97,87 %
19.06.2016 03:44 13,0 C 93 % 1017,3 hPa 0,0 l/m 7,4 km/h (2 Bft) SW 221 0 min 0,000 mm 0,0 UV-I 0 W/m 11,9 C 12,4 C 11,3 km/h (2 Bft) 96,00 %
19.06.2016 03:46 13,0 C 93 % 1017,4 hPa 0,0 l/m 8,3 km/h (2 Bft) W-SW 248 0 min 0,000 mm 0,0 UV-I 0 W/m 11,9 C 11,8 C 12,9 km/h (3 Bft) 95,74 %
19.06.2016 03:48 13,0 C 93 % 1017,3 hPa 0,0 l/m 9,8 km/h (2 Bft) SW 217 0 min 0,000 mm 0,0 UV-I 0 W/m 11,9 C 11,0 C 14,5 km/h (3 Bft) 95,74 %
19.06.2016 03:50 13,0 C 93 % 1017,3 hPa 0,0 l/m 9,0 km/h (2 Bft) SW 232 0 min 0,000 mm 0,0 UV-I 0 W/m 11,9 C 11,4 C 14,5 km/h (3 Bft) 91,49 %
19.06.2016 03:52 13,0 C 93 % 1017,3 hPa 0,0 l/m 7,8 km/h (2 Bft) S-SW 199 0 min 0,000 mm 0,0 UV-I 0 W/m 11,9 C 12,1 C 11,3 km/h (2 Bft) 97,37 %
19.06.2016 03:54 13,0 C 93 % 1017,3 hPa 0,0 l/m 10,6 km/h (2 Bft) SW 215 0 min 0,000 mm 0,0 UV-I 0 W/m 11,9 C 10,6 C 14,5 km/h (3 Bft) 97,87 %
19.06.2016 03:56 13,0 C 93 % 1017,3 hPa 0,0 l/m 9,4 km/h (2 Bft) SW 224 0 min 0,000 mm 0,0 UV-I 0 W/m 11,9 C 11,2 C 14,5 km/h (3 Bft) 95,74 %
19.06.2016 03:58 13,0 C 93 % 1017,4 hPa 0,0 l/m 10,4 km/h (2 Bft) SW 216 0 min 0,000 mm 0,0 UV-I 0 W/m 11,9 C 10,7 C 14,5 km/h (3 Bft) 100,00 %
19.06.2016 04:00 13,0 C 93 % 1017,4 hPa 0,0 l/m 9,5 km/h (2 Bft) SW 226 0 min 0,000 mm 0,0 UV-I 0 W/m 11,9 C 11,2 C 12,9 km/h (3 Bft) 97,87 %
19.06.2016 04:02 13,0 C 93 % 1017,4 hPa 0,0 l/m 8,7 km/h (2 Bft) W-SW 242 0 min 0,000 mm 0,0 UV-I 0 W/m 11,9 C 11,6 C 12,9 km/h (3 Bft) 97,14 %
19.06.2016 04:04 13,0 C 93 % 1017,4 hPa 0,0 l/m 10,9 km/h (2 Bft) S-SW 197 0 min 0,000 mm 0,0 UV-I 0 W/m 11,9 C 10,5 C 17,7 km/h (3 Bft) 97,87 %
19.06.2016 04:06 12,9 C 93 % 1017,4 hPa 0,0 l/m 12,0 km/h (2 Bft) S-SW 200 0 min 0,000 mm 0,0 UV-I 0 W/m 11,8 C 9,9 C 17,7 km/h (3 Bft) 100,00 %
19.06.2016 04:08 12,9 C 93 % 1017,4 hPa 0,0 l/m 10,0 km/h (2 Bft) SW 234 0 min 0,000 mm 0,0 UV-I 0 W/m 11,8 C 10,8 C 14,5 km/h (3 Bft) 95,74 %
19.06.2016 04:10 12,9 C 93 % 1017,5 hPa 0,0 l/m 9,1 km/h (2 Bft) SW 230 0 min 0,000 mm 0,0 UV-I 0 W/m 11,8 C 11,3 C 16,1 km/h (3 Bft) 97,44 %
19.06.2016 04:12 12,9 C 93 % 1017,5 hPa 0,0 l/m 11,5 km/h (2 Bft) SW 229 0 min 0,000 mm 0,0 UV-I 0 W/m 11,8 C 10,1 C 19,3 km/h (3 Bft) 100,00 %
19.06.2016 04:14 12,9 C 93 % 1017,5 hPa 0,0 l/m 9,9 km/h (2 Bft) SW 215 0 min 0,000 mm 0,0 UV-I 0 W/m 11,8 C 10,8 C 14,5 km/h (3 Bft) 93,62 %
19.06.2016 04:16 13,0 C 93 % 1017,5 hPa 0,0 l/m 12,9 km/h (3 Bft) SW 231 0 min 0,000 mm 0,0 UV-I 0 W/m 11,9 C 9,6 C 20,9 km/h (4 Bft) 98,00 %
19.06.2016 04:18 13,0 C 93 % 1017,6 hPa 0,0 l/m 11,9 km/h (2 Bft) SW 234 0 min 0,000 mm 0,0 UV-I 0 W/m 11,9 C 10,0 C 17,7 km/h (3 Bft) 100,00 %
19.06.2016 04:20 12,9 C 93 % 1017,5 hPa 0,0 l/m 9,7 km/h (2 Bft) W-SW 241 0 min 0,000 mm 0,0 UV-I 0 W/m 11,8 C 11,0 C 14,5 km/h (3 Bft) 100,00 %
19.06.2016 04:22 13,0 C 94 % 1017,6 hPa 0,0 l/m 10,2 km/h (2 Bft) SW 236 0 min 0,000 mm 0,0 UV-I 0 W/m 12,1 C 10,8 C 14,5 km/h (3 Bft) 94,74 %
19.06.2016 04:24 13,0 C 94 % 1017,6 hPa 0,0 l/m 8,9 km/h (2 Bft) SW 234 0 min 0,000 mm 0,0 UV-I 0 W/m 12,1 C 11,5 C 16,1 km/h (3 Bft) 98,00 %
19.06.2016 04:26 13,0 C 94 % 1017,6 hPa 0,0 l/m 8,9 km/h (2 Bft) SW 234 0 min 0,000 mm 0,0 UV-I 0 W/m 12,1 C 11,5 C 14,5 km/h (3 Bft) 97,87 %
19.06.2016 04:28 13,0 C 94 % 1017,6 hPa 0,0 l/m 10,0 km/h (2 Bft) W-SW 240 0 min 0,000 mm 0,0 UV-I 0 W/m 12,1 C 10,9 C 14,5 km/h (3 Bft) 100,00 %
19.06.2016 04:30 13,0 C 94 % 1017,7 hPa 0,0 l/m 8,2 km/h (2 Bft) SW 234 0 min 0,000 mm 0,0 UV-I 0 W/m 12,1 C 11,9 C 12,9 km/h (3 Bft) 100,00 %
19.06.2016 04:32 13,0 C 94 % 1017,7 hPa 0,0 l/m 11,8 km/h (2 Bft) W-SW 242 0 min 0,000 mm 0,0 UV-I 0 W/m 12,1 C 10,1 C 17,7 km/h (3 Bft) 98,00 %
19.06.2016 04:34 13,1 C 94 % 1017,7 hPa 0,0 l/m 12,1 km/h (2 Bft) W-SW 257 0 min 0,000 mm 0,0 UV-I 0 W/m 12,2 C 10,0 C 19,3 km/h (3 Bft) 100,00 %
19.06.2016 04:36 13,1 C 94 % 1017,7 hPa 0,0 l/m 10,4 km/h (2 Bft) SW 236 0 min 0,000 mm 0,0 UV-I 0 W/m 12,2 C 10,8 C 17,7 km/h (3 Bft) 97,87 %
19.06.2016 04:38 13,1 C 94 % 1017,7 hPa 0,0 l/m 11,7 km/h (2 Bft) SW 231 0 min 0,000 mm 0,0 UV-I 0 W/m 12,2 C 10,2 C 16,1 km/h (3 Bft) 94,29 %
19.06.2016 04:40 13,1 C 94 % 1017,6 hPa 0,0 l/m 9,8 km/h (2 Bft) W-SW 239 0 min 0,000 mm 0,0 UV-I 0 W/m 12,2 C 11,1 C 17,7 km/h (3 Bft) 98,11 %
19.06.2016 04:42 13,1 C 94 % 1017,8 hPa 0,0 l/m 9,3 km/h (2 Bft) W-SW 246 0 min 0,000 mm 0,0 UV-I 0 W/m 12,2 C 11,4 C 14,5 km/h (3 Bft) 98,04 %
19.06.2016 04:44 13,1 C 94 % 1017,7 hPa 0,0 l/m 9,2 km/h (2 Bft) SW 223 0 min 0,000 mm 0,0 UV-I 0 W/m 12,2 C 11,4 C 17,7 km/h (3 Bft) 97,87 %
19.06.2016 04:46 13,1 C 94 % 1017,7 hPa 0,0 l/m 7,8 km/h (2 Bft) W 260 0 min 0,000 mm 0,0 UV-I 0 W/m 12,2 C 12,2 C 11,3 km/h (2 Bft) 100,00 %
19.06.2016 04:48 13,1 C 94 % 1017,7 hPa 0,0 l/m 9,5 km/h (2 Bft) SW 230 0 min 0,000 mm 0,0 UV-I 0 W/m 12,2 C 11,3 C 12,9 km/h (3 Bft) 100,00 %
19.06.2016 04:50 13,1 C 94 % 1017,7 hPa 0,0 l/m 10,7 km/h (2 Bft) SW 227 0 min 0,000 mm 0,0 UV-I 0 W/m 12,2 C 10,7 C 16,1 km/h (3 Bft) 100,00 %
19.06.2016 04:52 13,1 C 94 % 1017,8 hPa 0,0 l/m 10,5 km/h (2 Bft) SW 236 0 min 0,000 mm 0,0 UV-I 0 W/m 12,2 C 10,8 C 16,1 km/h (3 Bft) 95,74 %
19.06.2016 04:54 13,1 C 94 % 1017,8 hPa 0,0 l/m 11,0 km/h (2 Bft) SW 230 0 min 0,000 mm 0,0 UV-I 0 W/m 12,2 C 10,5 C 16,1 km/h (3 Bft) 96,00 %
19.06.2016 04:56 13,1 C 93 % 1017,8 hPa 0,0 l/m 10,4 km/h (2 Bft) W-SW 249 0 min 0,000 mm 0,0 UV-I 0 W/m 12,0 C 10,8 C 14,5 km/h (3 Bft) 100,00 %
19.06.2016 04:58 13,1 C 93 % 1017,8 hPa 0,0 l/m 9,0 km/h (2 Bft) SW 219 0 min 0,000 mm 0,0 UV-I 0 W/m 12,0 C 11,5 C 12,9 km/h (3 Bft) 97,87 %
19.06.2016 05:00 13,2 C 93 % 1017,8 hPa 0,0 l/m 8,5 km/h (2 Bft) W-SW 239 0 min 0,000 mm 0,0 UV-I 0 W/m 12,1 C 11,9 C 16,1 km/h (3 Bft) 97,87 %
19.06.2016 05:02 13,2 C 93 % 1017,8 hPa 0,0 l/m 9,2 km/h (2 Bft) W-SW 245 0 min 0,000 mm 0,0 UV-I 0 W/m 12,1 C 11,5 C 16,1 km/h (3 Bft) 100,00 %
19.06.2016 05:04 13,2 C 93 % 1017,7 hPa 0,0 l/m 10,9 km/h (2 Bft) W 267 0 min 0,000 mm 0,0 UV-I 0 W/m 12,1 C 10,7 C 17,7 km/h (3 Bft) 100,00 %
19.06.2016 05:06 13,2 C 93 % 1017,8 hPa 0,0 l/m 8,8 km/h (2 Bft) W-SW 248 0 min 0,000 mm 0,0 UV-I 0 W/m 12,1 C 11,8 C 12,9 km/h (3 Bft) 100,00 %
19.06.2016 05:08 13,2 C 93 % 1017,8 hPa 0,0 l/m 8,1 km/h (2 Bft) SW 234 0 min 0,000 mm 0,0 UV-I 0 W/m 12,1 C 12,2 C 14,5 km/h (3 Bft) 97,87 %
19.06.2016 05:10 13,2 C 93 % 1017,8 hPa 0,0 l/m 10,3 km/h (2 Bft) W-SW 252 0 min 0,000 mm 0,0 UV-I 0 W/m 12,1 C 11,0 C 16,1 km/h (3 Bft) 93,62 %
19.06.2016 05:12 13,2 C 93 % 1017,8 hPa 0,0 l/m 8,8 km/h (2 Bft) W 265 0 min 0,000 mm 0,0 UV-I 0 W/m 12,1 C 11,8 C 14,5 km/h (3 Bft) 100,00 %
19.06.2016 05:14 13,2 C 93 % 1017,9 hPa 0,0 l/m 9,7 km/h (2 Bft) W-SW 254 0 min 0,000 mm 0,0 UV-I 0 W/m 12,1 C 11,3 C 14,5 km/h (3 Bft) 100,00 %
19.06.2016 05:16 13,2 C 93 % 1017,9 hPa 0,0 l/m 7,3 km/h (2 Bft) W-SW 254 0 min 0,000 mm 0,0 UV-I 0 W/m 12,1 C 12,6 C 11,3 km/h (2 Bft) 95,74 %
19.06.2016 05:18 13,2 C 93 % 1017,9 hPa 0,0 l/m 7,6 km/h (2 Bft) W-SW 242 0 min 0,000 mm 0,0 UV-I 0 W/m 12,1 C 12,5 C 12,9 km/h (3 Bft) 95,74 %
19.06.2016 05:20 13,2 C 93 % 1017,9 hPa 0,0 l/m 8,8 km/h (2 Bft) W 261 0 min 0,000 mm 0,0 UV-I 0 W/m 12,1 C 11,8 C 12,9 km/h (3 Bft) 97,87 %
19.06.2016 05:22 13,2 C 93 % 1017,9 hPa 0,0 l/m 10,4 km/h (2 Bft) W-SW 250 0 min 0,000 mm 0,0 UV-I 0 W/m 12,1 C 10,9 C 14,5 km/h (3 Bft) 98,00 %
19.06.2016 05:24 13,2 C 93 % 1017,9 hPa 0,0 l/m 8,6 km/h (2 Bft) S-SW 207 0 min 0,000 mm 0,0 UV-I 0 W/m 12,1 C 11,9 C 12,9 km/h (3 Bft) 95,74 %
19.06.2016 05:26 13,3 C 93 % 1018,0 hPa 0,0 l/m 8,3 km/h (2 Bft) W-SW 252 0 min 0,000 mm 0,0 UV-I 0 W/m 12,2 C 12,1 C 14,5 km/h (3 Bft) 95,74 %
19.06.2016 05:28 13,3 C 93 % 1018,0 hPa 0,0 l/m 7,1 km/h (2 Bft) SW 223 0 min 0,000 mm 0,0 UV-I 0 W/m 12,2 C 12,9 C 11,3 km/h (2 Bft) 97,87 %
19.06.2016 05:30 13,3 C 93 % 1018,0 hPa 0,0 l/m 8,0 km/h (2 Bft) W-SW 238 0 min 0,000 mm 0,0 UV-I 2 W/m 12,2 C 12,3 C 12,9 km/h (3 Bft) 97,92 %
19.06.2016 05:32 13,3 C 92 % 1018,0 hPa 0,0 l/m 5,8 km/h (2 Bft) W-SW 249 0 min 0,000 mm 0,0 UV-I 5 W/m 12,0 C 13,3 C 9,7 km/h (2 Bft) 97,87 %
19.06.2016 05:34 13,3 C 92 % 1018,0 hPa 0,0 l/m 6,5 km/h (2 Bft) SW 225 0 min 0,000 mm 0,0 UV-I 6 W/m 12,0 C 13,3 C 9,7 km/h (2 Bft) 93,62 %
19.06.2016 05:36 13,3 C 92 % 1018,0 hPa 0,0 l/m 5,9 km/h (2 Bft) SW 234 0 min 0,000 mm 0,0 UV-I 7 W/m 12,0 C 13,3 C 11,3 km/h (2 Bft) 95,74 %
19.06.2016 05:38 13,3 C 92 % 1018,0 hPa 0,0 l/m 6,6 km/h (2 Bft) SW 232 0 min 0,000 mm 0,0 UV-I 7 W/m 12,0 C 13,2 C 11,3 km/h (2 Bft) 96,00 %
19.06.2016 05:40 13,3 C 92 % 1018,0 hPa 0,0 l/m 5,4 km/h (1 Bft) SW 223 0 min 0,000 mm 0,0 UV-I 8 W/m 12,0 C 13,3 C 8,0 km/h (2 Bft) 94,74 %
19.06.2016 05:42 13,3 C 92 % 1018,1 hPa 0,0 l/m 5,2 km/h (1 Bft) W-SW 238 0 min 0,000 mm 0,0 UV-I 9 W/m 12,0 C 13,3 C 9,7 km/h (2 Bft) 97,87 %
19.06.2016 05:44 13,3 C 92 % 1018,1 hPa 0,0 l/m 8,4 km/h (2 Bft) W-SW 245 0 min 0,000 mm 0,0 UV-I 11 W/m 12,0 C 12,1 C 11,3 km/h (2 Bft) 95,74 %
19.06.2016 05:46 13,3 C 92 % 1018,1 hPa 0,0 l/m 9,0 km/h (2 Bft) W-SW 249 0 min 0,000 mm 0,0 UV-I 11 W/m 12,0 C 11,8 C 14,5 km/h (3 Bft) 93,62 %
19.06.2016 05:48 13,4 C 92 % 1018,2 hPa 0,0 l/m 8,7 km/h (2 Bft) W 259 0 min 0,000 mm 0,0 UV-I 11 W/m 12,1 C 12,0 C 12,9 km/h (3 Bft) 97,87 %
19.06.2016 05:50 13,4 C 92 % 1018,2 hPa 0,0 l/m 9,8 km/h (2 Bft) W-SW 258 0 min 0,000 mm 0,0 UV-I 12 W/m 12,1 C 11,5 C 14,5 km/h (3 Bft) 98,00 %
19.06.2016 05:52 13,4 C 92 % 1018,2 hPa 0,0 l/m 8,7 km/h (2 Bft) W 261 0 min 0,000 mm 0,0 UV-I 14 W/m 12,1 C 12,0 C 12,9 km/h (3 Bft) 93,62 %
19.06.2016 05:54 13,4 C 92 % 1018,2 hPa 0,0 l/m 9,7 km/h (2 Bft) SW 234 0 min 0,000 mm 0,0 UV-I 15 W/m 12,1 C 11,5 C 12,9 km/h (3 Bft) 96,00 %
19.06.2016 05:56 13,4 C 92 % 1018,3 hPa 0,0 l/m 9,7 km/h (2 Bft) W-SW 257 0 min 0,000 mm 0,0 UV-I 16 W/m 12,1 C 11,5 C 12,9 km/h (3 Bft) 96,00 %
19.06.2016 05:58 13,4 C 92 % 1018,2 hPa 0,0 l/m 9,2 km/h (2 Bft) W 261 0 min 0,000 mm 0,0 UV-I 18 W/m 12,1 C 11,8 C 14,5 km/h (3 Bft) 91,43 %
19.06.2016 06:00 13,4 C 92 % 1018,2 hPa 0,0 l/m 7,7 km/h (2 Bft) W-SW 245 0 min 0,000 mm 0,0 UV-I 17 W/m 12,1 C 12,6 C 11,3 km/h (2 Bft) 97,87 %
19.06.2016 06:02 13,4 C 92 % 1018,3 hPa 0,0 l/m 7,6 km/h (2 Bft) SW 218 0 min 0,000 mm 0,0 UV-I 16 W/m 12,1 C 12,7 C 11,3 km/h (2 Bft) 100,00 %
19.06.2016 06:04 13,4 C 92 % 1018,3 hPa 0,0 l/m 8,2 km/h (2 Bft) SW 219 0 min 0,000 mm 0,0 UV-I 14 W/m 12,1 C 12,3 C 11,3 km/h (2 Bft) 97,87 %
19.06.2016 06:06 13,4 C 92 % 1018,3 hPa 0,0 l/m 8,6 km/h (2 Bft) S-SW 213 0 min 0,000 mm 0,0 UV-I 13 W/m 12,1 C 12,1 C 12,9 km/h (3 Bft) 98,00 %
19.06.2016 06:08 13,4 C 92 % 1018,3 hPa 0,0 l/m 6,2 km/h (2 Bft) W-SW 244 0 min 0,000 mm 0,0 UV-I 12 W/m 12,1 C 13,4 C 9,7 km/h (2 Bft) 100,00 %
19.06.2016 06:10 13,4 C 92 % 1018,2 hPa 0,0 l/m 6,6 km/h (2 Bft) W-SW 242 0 min 0,000 mm 0,0 UV-I 12 W/m 12,1 C 13,3 C 11,3 km/h (2 Bft) 97,92 %
19.06.2016 06:12 13,4 C 92 % 1018,3 hPa 0,0 l/m 6,5 km/h (2 Bft) W-SW 250 0 min 0,000 mm 0,0 UV-I 13 W/m 12,1 C 13,4 C 12,9 km/h (3 Bft) 95,74 %
19.06.2016 06:14 13,4 C 92 % 1018,3 hPa 0,0 l/m 7,6 km/h (2 Bft) W-SW 242 0 min 0,000 mm 0,0 UV-I 16 W/m 12,1 C 12,7 C 12,9 km/h (3 Bft) 100,00 %
19.06.2016 06:16 13,4 C 92 % 1018,3 hPa 0,0 l/m 8,9 km/h (2 Bft) SW 217 0 min 0,000 mm 0,0 UV-I 19 W/m 12,1 C 11,9 C 17,7 km/h (3 Bft) 97,87 %
19.06.2016 06:18 13,4 C 92 % 1018,3 hPa 0,0 l/m 8,5 km/h (2 Bft) W-SW 244 0 min 0,000 mm 0,0 UV-I 21 W/m 12,1 C 12,1 C 12,9 km/h (3 Bft) 97,87 %
19.06.2016 06:20 13,4 C 92 % 1018,3 hPa 0,0 l/m 10,5 km/h (2 Bft) SW 228 0 min 0,000 mm 0,0 UV-I 22 W/m 12,1 C 11,1 C 14,5 km/h (3 Bft) 100,00 %
19.06.2016 06:22 13,4 C 92 % 1018,4 hPa 0,0 l/m 10,5 km/h (2 Bft) SW 215 0 min 0,000 mm 0,0 UV-I 22 W/m 12,1 C 11,1 C 14,5 km/h (3 Bft) 98,00 %
19.06.2016 06:24 13,4 C 92 % 1018,4 hPa 0,0 l/m 10,2 km/h (2 Bft) SW 230 0 min 0,000 mm 0,0 UV-I 21 W/m 12,1 C 11,3 C 14,5 km/h (3 Bft) 100,00 %
19.06.2016 06:26 13,4 C 92 % 1018,4 hPa 0,0 l/m 12,5 km/h (3 Bft) SW 225 0 min 0,000 mm 0,0 UV-I 18 W/m 12,1 C 10,2 C 17,7 km/h (3 Bft) 97,87 %
19.06.2016 06:28 13,4 C 92 % 1018,4 hPa 0,0 l/m 9,9 km/h (2 Bft) S-SW 212 0 min 0,000 mm 0,0 UV-I 18 W/m 12,1 C 11,4 C 14,5 km/h (3 Bft) 97,87 %
19.06.2016 06:30 13,4 C 92 % 1018,4 hPa 0,0 l/m 9,9 km/h (2 Bft) SW 221 0 min 0,000 mm 0,0 UV-I 18 W/m 12,1 C 11,4 C 14,5 km/h (3 Bft) 100,00 %
19.06.2016 06:32 13,4 C 92 % 1018,5 hPa 0,0 l/m 10,2 km/h (2 Bft) S-SW 212 0 min 0,000 mm 0,0 UV-I 18 W/m 12,1 C 11,3 C 16,1 km/h (3 Bft) 97,87 %
19.06.2016 06:34 13,4 C 92 % 1018,5 hPa 0,0 l/m 10,3 km/h (2 Bft) W-SW 252 0 min 0,000 mm 0,0 UV-I 18 W/m 12,1 C 11,2 C 16,1 km/h (3 Bft) 93,62 %
19.06.2016 06:36 13,4 C 92 % 1018,5 hPa 0,0 l/m 7,8 km/h (2 Bft) SW 223 0 min 0,000 mm 0,0 UV-I 18 W/m 12,1 C 12,5 C 12,9 km/h (3 Bft) 100,00 %
19.06.2016 06:38 13,4 C 92 % 1018,5 hPa 0,0 l/m 10,9 km/h (2 Bft) SW 223 0 min 0,000 mm 0,0 UV-I 18 W/m 12,1 C 10,9 C 17,7 km/h (3 Bft) 97,87 %
19.06.2016 06:40 13,4 C 92 % 1018,6 hPa 0,0 l/m 9,0 km/h (2 Bft) S-SW 206 0 min 0,000 mm 0,0 UV-I 19 W/m 12,1 C 11,9 C 14,5 km/h (3 Bft) 97,87 %
19.06.2016 06:42 13,4 C 92 % 1018,6 hPa 0,0 l/m 7,8 km/h (2 Bft) SW 236 0 min 0,000 mm 0,0 UV-I 20 W/m 12,1 C 12,5 C 12,9 km/h (3 Bft) 97,87 %
19.06.2016 06:44 13,4 C 92 % 1018,6 hPa 0,0 l/m 8,6 km/h (2 Bft) SW 230 0 min 0,000 mm 0,0 UV-I 23 W/m 12,1 C 12,1 C 12,9 km/h (3 Bft) 98,00 %
19.06.2016 06:46 13,4 C 92 % 1018,6 hPa 0,0 l/m 10,5 km/h (2 Bft) SW 230 0 min 0,000 mm 0,0 UV-I 25 W/m 12,1 C 11,1 C 16,1 km/h (3 Bft) 97,87 %
19.06.2016 06:48 13,4 C 92 % 1018,6 hPa 0,0 l/m 9,0 km/h (2 Bft) W-SW 242 0 min 0,000 mm 0,0 UV-I 29 W/m 12,1 C 11,9 C 12,9 km/h (3 Bft) 98,00 %
19.06.2016 06:50 13,4 C 92 % 1018,6 hPa 0,0 l/m 11,4 km/h (2 Bft) W-SW 240 0 min 0,000 mm 0,0 UV-I 35 W/m 12,1 C 10,7 C 16,1 km/h (3 Bft) 100,00 %
19.06.2016 06:52 13,4 C 92 % 1018,6 hPa 0,0 l/m 10,1 km/h (2 Bft) W-SW 250 0 min 0,000 mm 0,0 UV-I 38 W/m 12,1 C 11,3 C 14,5 km/h (3 Bft) 100,00 %
19.06.2016 06:54 13,4 C 92 % 1018,6 hPa 0,0 l/m 10,1 km/h (2 Bft) SW 226 0 min 0,000 mm 0,0 UV-I 39 W/m 12,1 C 11,3 C 14,5 km/h (3 Bft) 97,87 %
19.06.2016 06:56 13,4 C 92 % 1018,7 hPa 0,0 l/m 8,2 km/h (2 Bft) SW 217 0 min 0,000 mm 0,0 UV-I 40 W/m 12,1 C 12,3 C 12,9 km/h (3 Bft) 97,87 %
19.06.2016 06:58 13,5 C 92 % 1018,6 hPa 0,0 l/m 8,7 km/h (2 Bft) W-SW 242 0 min 0,000 mm 0,0 UV-I 42 W/m 12,2 C 12,1 C 12,9 km/h (3 Bft) 100,00 %
19.06.2016 07:00 13,5 C 92 % 1018,7 hPa 0,0 l/m 8,6 km/h (2 Bft) SW 216 0 min 0,025 mm 0,0 UV-I 41 W/m 12,2 C 12,2 C 14,5 km/h (3 Bft) 97,87 %
19.06.2016 07:02 13,5 C 92 % 1018,7 hPa 0,0 l/m 9,0 km/h (2 Bft) W-SW 240 0 min 0,000 mm 0,0 UV-I 40 W/m 12,2 C 12,0 C 14,5 km/h (3 Bft) 100,00 %
19.06.2016 07:04 13,6 C 92 % 1018,7 hPa 0,0 l/m 8,3 km/h (2 Bft) SW 230 0 min 0,000 mm 0,0 UV-I 39 W/m 12,3 C 12,5 C 11,3 km/h (2 Bft) 100,00 %
19.06.2016 07:06 13,6 C 92 % 1018,8 hPa 0,0 l/m 9,3 km/h (2 Bft) SW 233 0 min 0,000 mm 0,0 UV-I 37 W/m 12,3 C 11,9 C 12,9 km/h (3 Bft) 97,87 %
19.06.2016 07:08 13,6 C 92 % 1018,8 hPa 0,0 l/m 8,0 km/h (2 Bft) SW 226 0 min 0,000 mm 0,0 UV-I 39 W/m 12,3 C 12,6 C 12,9 km/h (3 Bft) 100,00 %
19.06.2016 07:10 13,6 C 92 % 1018,8 hPa 0,0 l/m 9,9 km/h (2 Bft) SW 229 0 min 0,000 mm 0,0 UV-I 39 W/m 12,3 C 11,6 C 17,7 km/h (3 Bft) 94,74 %
19.06.2016 07:12 13,6 C 91 % 1018,8 hPa 0,0 l/m 9,4 km/h (2 Bft) W-SW 252 0 min 0,000 mm 0,0 UV-I 39 W/m 12,2 C 11,9 C 16,1 km/h (3 Bft) 97,87 %
19.06.2016 07:14 13,6 C 91 % 1018,8 hPa 0,0 l/m 8,6 km/h (2 Bft) W-SW 250 0 min 0,000 mm 0,0 UV-I 39 W/m 12,2 C 12,3 C 14,5 km/h (3 Bft) 97,87 %
19.06.2016 07:16 13,6 C 92 % 1018,8 hPa 0,0 l/m 9,8 km/h (2 Bft) W-SW 243 0 min 0,000 mm 0,0 UV-I 39 W/m 12,3 C 11,7 C 17,7 km/h (3 Bft) 95,74 %
19.06.2016 07:18 13,6 C 92 % 1018,8 hPa 0,0 l/m 9,1 km/h (2 Bft) SW 221 0 min 0,000 mm 0,0 UV-I 40 W/m 12,3 C 12,0 C 11,3 km/h (2 Bft) 100,00 %
19.06.2016 07:20 13,7 C 92 % 1018,8 hPa 0,0 l/m 9,5 km/h (2 Bft) W-SW 248 0 min 0,000 mm 0,0 UV-I 42 W/m 12,4 C 11,9 C 14,5 km/h (3 Bft) 100,00 %
19.06.2016 07:22 13,7 C 91 % 1018,7 hPa 0,0 l/m 8,5 km/h (2 Bft) SW 228 0 min 0,000 mm 0,0 UV-I 46 W/m 12,3 C 12,5 C 12,9 km/h (3 Bft) 97,87 %
19.06.2016 07:24 13,7 C 91 % 1018,8 hPa 0,0 l/m 7,6 km/h (2 Bft) S-SW 201 0 min 0,000 mm 0,0 UV-I 51 W/m 12,3 C 13,0 C 16,1 km/h (3 Bft) 98,00 %
19.06.2016 07:26 13,7 C 91 % 1018,8 hPa 0,0 l/m 10,3 km/h (2 Bft) SW 229 0 min 0,000 mm 0,0 UV-I 55 W/m 12,3 C 11,5 C 14,5 km/h (3 Bft) 97,87 %
19.06.2016 07:28 13,7 C 91 % 1018,8 hPa 0,0 l/m 8,2 km/h (2 Bft) SW 220 0 min 0,000 mm 0,0 UV-I 60 W/m 12,3 C 12,6 C 17,7 km/h (3 Bft) 97,87 %
19.06.2016 07:30 13,7 C 91 % 1018,9 hPa 0,0 l/m 10,3 km/h (2 Bft) S-SW 204 0 min 0,000 mm 0,0 UV-I 66 W/m 12,3 C 11,5 C 19,3 km/h (3 Bft) 95,74 %
19.06.2016 07:32 13,7 C 91 % 1018,8 hPa 0,0 l/m 6,6 km/h (2 Bft) W-SW 250 0 min 0,000 mm 0,0 UV-I 69 W/m 12,3 C 13,6 C 11,3 km/h (2 Bft) 97,92 %
19.06.2016 07:34 13,8 C 91 % 1018,9 hPa 0,0 l/m 7,6 km/h (2 Bft) S-SW 198 0 min 0,000 mm 0,0 UV-I 71 W/m 12,4 C 13,1 C 14,5 km/h (3 Bft) 97,87 %
19.06.2016 07:36 13,8 C 91 % 1018,9 hPa 0,0 l/m 8,7 km/h (2 Bft) S-SW 192 0 min 0,000 mm 0,0 UV-I 76 W/m 12,4 C 12,5 C 16,1 km/h (3 Bft) 95,74 %
19.06.2016 07:38 13,8 C 91 % 1018,9 hPa 0,0 l/m 8,9 km/h (2 Bft) W-SW 253 0 min 0,000 mm 0,0 UV-I 85 W/m 12,4 C 12,3 C 14,5 km/h (3 Bft) 94,74 %
19.06.2016 07:40 13,8 C 92 % 1018,8 hPa 0,0 l/m 8,8 km/h (2 Bft) W-SW 256 0 min 0,000 mm 0,0 UV-I 93 W/m 12,5 C 12,4 C 14,5 km/h (3 Bft) 95,92 %
19.06.2016 07:42 13,8 C 91 % 1018,8 hPa 0,0 l/m 5,8 km/h (2 Bft) W-SW 256 0 min 0,000 mm 0,0 UV-I 98 W/m 12,4 C 13,8 C 11,3 km/h (2 Bft) 93,75 %
19.06.2016 07:44 13,9 C 92 % 1018,8 hPa 0,0 l/m 6,6 km/h (2 Bft) W-SW 257 0 min 0,000 mm 0,0 UV-I 102 W/m 12,6 C 13,8 C 11,3 km/h (2 Bft) 97,87 %
19.06.2016 07:46 13,9 C 91 % 1018,8 hPa 0,0 l/m 6,4 km/h (2 Bft) W-SW 258 0 min 0,000 mm 0,0 UV-I 101 W/m 12,5 C 13,9 C 11,3 km/h (2 Bft) 95,74 %
19.06.2016 07:48 13,9 C 91 % 1018,9 hPa 0,0 l/m 9,3 km/h (2 Bft) W 262 0 min 0,000 mm 0,0 UV-I 102 W/m 12,5 C 12,2 C 12,9 km/h (3 Bft) 94,00 %
19.06.2016 07:50 13,9 C 91 % 1018,8 hPa 0,0 l/m 5,5 km/h (1 Bft) W 266 0 min 0,000 mm 0,0 UV-I 107 W/m 12,5 C 13,9 C 9,7 km/h (2 Bft) 97,56 %
19.06.2016 07:52 14,0 C 91 % 1018,8 hPa 0,0 l/m 5,6 km/h (1 Bft) W-SW 245 0 min 0,000 mm 0,0 UV-I 120 W/m 12,6 C 14,0 C 11,3 km/h (2 Bft) 94,00 %
19.06.2016 07:54 14,0 C 91 % 1018,8 hPa 0,0 l/m 5,5 km/h (1 Bft) W 281 0 min 0,000 mm 0,0 UV-I 136 W/m 12,6 C 14,0 C 9,7 km/h (2 Bft) 93,62 %
19.06.2016 07:56 14,1 C 91 % 1018,8 hPa 0,0 l/m 3,9 km/h (1 Bft) W-SW 252 0 min 0,000 mm 0,0 UV-I 138 W/m 12,7 C 14,1 C 6,4 km/h (2 Bft) 93,62 %
19.06.2016 07:58 14,1 C 91 % 1018,8 hPa 0,0 l/m 2,9 km/h (1 Bft) W-SW 252 0 min 0,000 mm 0,0 UV-I 126 W/m 12,7 C 14,1 C 4,8 km/h (1 Bft) 100,00 %
19.06.2016 08:00 14,1 C 91 % 1018,8 hPa 0,0 l/m 5,0 km/h (1 Bft) W 269 0 min 0,051 mm 0,0 UV-I 109 W/m 12,7 C 14,1 C 11,3 km/h (2 Bft) 100,00 %
19.06.2016 08:02 14,1 C 91 % 1018,9 hPa 0,0 l/m 3,9 km/h (1 Bft) W 259 0 min 0,000 mm 0,0 UV-I 92 W/m 12,7 C 14,1 C 11,3 km/h (2 Bft) 97,87 %
19.06.2016 08:04 14,1 C 91 % 1018,9 hPa 0,0 l/m 2,4 km/h (1 Bft) W 262 0 min 0,000 mm 0,0 UV-I 79 W/m 12,7 C 14,1 C 4,8 km/h (1 Bft) 97,87 %
19.06.2016 08:06 14,2 C 91 % 1018,9 hPa 0,0 l/m 5,0 km/h (1 Bft) W-SW 257 0 min 0,000 mm 0,0 UV-I 78 W/m 12,8 C 14,2 C 11,3 km/h (2 Bft) 100,00 %
19.06.2016 08:08 14,2 C 90 % 1019,0 hPa 0,0 l/m 6,9 km/h (2 Bft) W-SW 250 0 min 0,000 mm 0,0 UV-I 84 W/m 12,6 C 13,9 C 11,3 km/h (2 Bft) 100,00 %
19.06.2016 08:10 14,2 C 90 % 1019,0 hPa 0,0 l/m 4,9 km/h (1 Bft) W-SW 248 0 min 0,000 mm 0,0 UV-I 88 W/m 12,6 C 14,2 C 11,3 km/h (2 Bft) 100,00 %
19.06.2016 08:12 14,2 C 91 % 1019,0 hPa 0,0 l/m 5,0 km/h (1 Bft) W-SW 250 0 min 0,000 mm 0,0 UV-I 82 W/m 12,8 C 14,2 C 8,0 km/h (2 Bft) 98,15 %
19.06.2016 08:14 14,2 C 90 % 1019,1 hPa 0,0 l/m 8,5 km/h (2 Bft) W 280 0 min 0,000 mm 0,0 UV-I 74 W/m 12,6 C 13,0 C 12,9 km/h (3 Bft) 100,00 %
19.06.2016 08:16 14,2 C 90 % 1019,1 hPa 0,0 l/m 5,2 km/h (1 Bft) S-SW 213 0 min 0,000 mm 0,0 UV-I 70 W/m 12,6 C 14,2 C 6,4 km/h (2 Bft) 100,00 %
19.06.2016 08:18 14,2 C 90 % 1019,1 hPa 0,0 l/m 5,0 km/h (1 Bft) W 259 0 min 0,000 mm 0,0 UV-I 76 W/m 12,6 C 14,2 C 9,7 km/h (2 Bft) 97,87 %
19.06.2016 08:20 14,2 C 91 % 1019,1 hPa 0,0 l/m 4,2 km/h (1 Bft) SW 219 0 min 0,000 mm 0,0 UV-I 85 W/m 12,8 C 14,2 C 6,4 km/h (2 Bft) 100,00 %
19.06.2016 08:22 14,2 C 91 % 1019,1 hPa 0,0 l/m 5,5 km/h (1 Bft) S-SW 197 0 min 0,000 mm 0,0 UV-I 94 W/m 12,8 C 14,2 C 8,0 km/h (2 Bft) 100,00 %
19.06.2016 08:24 14,2 C 90 % 1019,1 hPa 0,0 l/m 5,5 km/h (1 Bft) SW 223 0 min 0,000 mm 0,0 UV-I 98 W/m 12,6 C 14,2 C 9,7 km/h (2 Bft) 100,00 %
19.06.2016 08:26 14,2 C 91 % 1019,1 hPa 0,0 l/m 4,0 km/h (1 Bft) W-SW 237 0 min 0,000 mm 0,0 UV-I 98 W/m 12,8 C 14,2 C 6,4 km/h (2 Bft) 97,96 %
19.06.2016 08:28 14,2 C 90 % 1019,1 hPa 0,0 l/m 5,1 km/h (1 Bft) SW 223 0 min 0,000 mm 0,3 UV-I 100 W/m 12,6 C 14,2 C 8,0 km/h (2 Bft) 97,87 %
19.06.2016 08:30 14,2 C 90 % 1019,0 hPa 0,0 l/m 5,3 km/h (1 Bft) SW 233 0 min 0,000 mm 0,5 UV-I 105 W/m 12,6 C 14,2 C 11,3 km/h (2 Bft) 100,00 %
19.06.2016 08:32 14,3 C 91 % 1019,0 hPa 0,0 l/m 6,9 km/h (2 Bft) W-SW 257 0 min 0,000 mm 0,5 UV-I 115 W/m 12,8 C 14,0 C 12,9 km/h (3 Bft) 100,00 %
19.06.2016 08:34 14,3 C 91 % 1019,0 hPa 0,0 l/m 5,2 km/h (1 Bft) W-SW 258 0 min 0,000 mm 0,5 UV-I 127 W/m 12,8 C 14,3 C 9,7 km/h (2 Bft) 97,87 %
19.06.2016 08:36 14,3 C 91 % 1019,0 hPa 0,0 l/m 7,9 km/h (2 Bft) SW 225 0 min 0,000 mm 0,6 UV-I 135 W/m 12,8 C 13,4 C 12,9 km/h (3 Bft) 100,00 %
19.06.2016 08:38 14,3 C 91 % 1019,0 hPa 0,0 l/m 6,6 km/h (2 Bft) SW 235 0 min 0,000 mm 0,6 UV-I 136 W/m 12,8 C 14,2 C 11,3 km/h (2 Bft) 97,87 %
19.06.2016 08:40 14,4 C 91 % 1019,0 hPa 0,0 l/m 4,1 km/h (1 Bft) W-SW 238 0 min 0,000 mm 0,5 UV-I 131 W/m 12,9 C 14,4 C 6,4 km/h (2 Bft) 97,87 %
19.06.2016 08:42 14,4 C 91 % 1019,1 hPa 0,0 l/m 5,3 km/h (1 Bft) W 261 0 min 0,000 mm 0,5 UV-I 127 W/m 12,9 C 14,4 C 12,9 km/h (3 Bft) 100,00 %
19.06.2016 08:44 14,4 C 91 % 1019,1 hPa 0,0 l/m 8,1 km/h (2 Bft) W-SW 250 0 min 0,000 mm 0,5 UV-I 124 W/m 12,9 C 13,4 C 12,9 km/h (3 Bft) 96,00 %
19.06.2016 08:46 14,4 C 90 % 1019,2 hPa 0,0 l/m 5,5 km/h (1 Bft) W-SW 254 0 min 0,000 mm 0,5 UV-I 125 W/m 12,8 C 14,4 C 8,0 km/h (2 Bft) 100,00 %
19.06.2016 08:48 14,5 C 91 % 1019,1 hPa 0,0 l/m 4,8 km/h (1 Bft) W-SW 238 0 min 0,000 mm 0,6 UV-I 129 W/m 13,0 C 14,5 C 8,0 km/h (2 Bft) 94,00 %
19.06.2016 08:50 14,5 C 90 % 1019,2 hPa 0,0 l/m 5,8 km/h (2 Bft) W-SW 249 0 min 0,000 mm 0,6 UV-I 131 W/m 12,9 C 14,5 C 8,0 km/h (2 Bft) 100,00 %
19.06.2016 08:52 14,6 C 90 % 1019,3 hPa 0,0 l/m 6,2 km/h (2 Bft) SW 219 0 min 0,000 mm 0,6 UV-I 132 W/m 13,0 C 14,6 C 11,3 km/h (2 Bft) 100,00 %
19.06.2016 08:54 14,5 C 90 % 1019,3 hPa 0,0 l/m 6,1 km/h (2 Bft) SW 219 0 min 0,000 mm 0,6 UV-I 125 W/m 12,9 C 14,5 C 9,7 km/h (2 Bft) 100,00 %
19.06.2016 08:56 14,5 C 90 % 1019,3 hPa 0,0 l/m 4,8 km/h (1 Bft) W-SW 244 0 min 0,000 mm 0,5 UV-I 111 W/m 12,9 C 14,5 C 8,0 km/h (2 Bft) 100,00 %
19.06.2016 08:58 14,5 C 90 % 1019,3 hPa 0,0 l/m 4,4 km/h (1 Bft) W 261 0 min 0,000 mm 0,5 UV-I 107 W/m 12,9 C 14,5 C 6,4 km/h (2 Bft) 98,00 %
19.06.2016 09:00 14,6 C 90 % 1019,3 hPa 0,0 l/m 4,4 km/h (1 Bft) W-NW 290 0 min 0,051 mm 0,6 UV-I 123 W/m 13,0 C 14,6 C 6,4 km/h (2 Bft) 95,74 %
19.06.2016 09:02 14,6 C 90 % 1019,3 hPa 0,0 l/m 4,8 km/h (1 Bft) SW 231 0 min 0,000 mm 0,7 UV-I 156 W/m 13,0 C 14,6 C 6,4 km/h (2 Bft) 97,87 %
19.06.2016 09:04 14,6 C 90 % 1019,3 hPa 0,0 l/m 4,8 km/h (1 Bft) W-SW 248 0 min 0,000 mm 0,9 UV-I 181 W/m 13,0 C 14,6 C 11,3 km/h (2 Bft) 100,00 %
19.06.2016 09:06 14,7 C 90 % 1019,3 hPa 0,0 l/m 6,5 km/h (2 Bft) W-SW 249 0 min 0,000 mm 1,0 UV-I 195 W/m 13,1 C 14,7 C 9,7 km/h (2 Bft) 97,87 %
19.06.2016 09:08 14,7 C 89 % 1019,3 hPa 0,0 l/m 7,4 km/h (2 Bft) W-SW 246 0 min 0,000 mm 1,1 UV-I 209 W/m 12,9 C 14,1 C 11,3 km/h (2 Bft) 100,00 %
19.06.2016 09:10 14,7 C 89 % 1019,3 hPa 0,0 l/m 6,2 km/h (2 Bft) W-SW 251 0 min 0,000 mm 1,1 UV-I 206 W/m 12,9 C 14,7 C 8,0 km/h (2 Bft) 91,49 %
19.06.2016 09:12 14,8 C 90 % 1019,3 hPa 0,0 l/m 3,8 km/h (1 Bft) W 277 0 min 0,000 mm 1,0 UV-I 191 W/m 13,2 C 14,8 C 6,4 km/h (2 Bft) 95,74 %
19.06.2016 09:14 14,8 C 90 % 1019,3 hPa 0,0 l/m 4,6 km/h (1 Bft) W-SW 252 0 min 0,000 mm 1,0 UV-I 188 W/m 13,2 C 14,8 C 8,0 km/h (2 Bft) 100,00 %
19.06.2016 09:16 14,8 C 89 % 1019,3 hPa 0,0 l/m 5,5 km/h (1 Bft) W-SW 251 0 min 0,000 mm 1,1 UV-I 199 W/m 13,0 C 14,8 C 9,7 km/h (2 Bft) 97,87 %
19.06.2016 09:18 14,8 C 90 % 1019,3 hPa 0,0 l/m 3,0 km/h (1 Bft) SW 225 0 min 0,000 mm 1,1 UV-I 201 W/m 13,2 C 14,8 C 6,4 km/h (2 Bft) 91,43 %
19.06.2016 09:20 14,8 C 89 % 1019,3 hPa 0,0 l/m 2,3 km/h (1 Bft) SW 227 0 min 0,000 mm 1,1 UV-I 198 W/m 13,0 C 14,8 C 4,8 km/h (1 Bft) 95,74 %
19.06.2016 09:22 14,9 C 90 % 1019,3 hPa 0,0 l/m 2,5 km/h (1 Bft) W-SW 253 0 min 0,000 mm 1,1 UV-I 203 W/m 13,3 C 14,9 C 4,8 km/h (1 Bft) 97,92 %
19.06.2016 09:24 14,9 C 90 % 1019,4 hPa 0,0 l/m 3,4 km/h (1 Bft) W-SW 252 0 min 0,000 mm 1,1 UV-I 187 W/m 13,3 C 14,9 C 6,4 km/h (2 Bft) 100,00 %
19.06.2016 09:26 14,9 C 90 % 1019,4 hPa 0,0 l/m 1,2 km/h (1 Bft) W-SW 252 0 min 0,000 mm 1,0 UV-I 170 W/m 13,3 C 14,9 C 3,2 km/h (1 Bft) 95,74 %
19.06.2016 09:28 14,9 C 90 % 1019,4 hPa 0,0 l/m 3,0 km/h (1 Bft) W-SW 242 0 min 0,000 mm 0,9 UV-I 159 W/m 13,3 C 14,9 C 4,8 km/h (1 Bft) 97,87 %
19.06.2016 09:30 14,9 C 89 % 1019,4 hPa 0,0 l/m 6,0 km/h (2 Bft) W-SW 250 0 min 0,000 mm 0,8 UV-I 144 W/m 13,1 C 14,9 C 8,0 km/h (2 Bft) 95,74 %
19.06.2016 09:32 14,9 C 89 % 1019,5 hPa 0,0 l/m 3,3 km/h (1 Bft) W-SW 257 0 min 0,000 mm 0,7 UV-I 125 W/m 13,1 C 14,9 C 6,4 km/h (2 Bft) 97,87 %
19.06.2016 09:34 14,9 C 89 % 1019,5 hPa 0,0 l/m 2,2 km/h (1 Bft) W-NW 284 0 min 0,000 mm 0,6 UV-I 115 W/m 13,1 C 14,9 C 3,2 km/h (1 Bft) 97,87 %
19.06.2016 09:36 14,8 C 89 % 1019,4 hPa 0,0 l/m 0,5 km/h (0 Bft) W-NW 284 0 min 0,000 mm 0,6 UV-I 105 W/m 13,0 C 14,8 C 1,6 km/h (1 Bft) 95,74 %
19.06.2016 09:38 14,9 C 90 % 1019,4 hPa 0,0 l/m 0,7 km/h (0 Bft) W-NW 284 0 min 0,000 mm 0,6 UV-I 105 W/m 13,3 C 14,9 C 3,2 km/h (1 Bft) 97,87 %
19.06.2016 09:40 14,9 C 89 % 1019,4 hPa 0,0 l/m 1,4 km/h (1 Bft) W-NW 284 0 min 0,000 mm 0,6 UV-I 111 W/m 13,1 C 14,9 C 3,2 km/h (1 Bft) 95,74 %
19.06.2016 09:42 14,9 C 90 % 1019,4 hPa 0,0 l/m 3,6 km/h (1 Bft) SW 236 0 min 0,000 mm 0,7 UV-I 113 W/m 13,3 C 14,9 C 8,0 km/h (2 Bft) 93,62 %
19.06.2016 09:44 14,9 C 90 % 1019,4 hPa 0,0 l/m 4,4 km/h (1 Bft) W-SW 254 0 min 0,000 mm 0,5 UV-I 100 W/m 13,3 C 14,9 C 9,7 km/h (2 Bft) 98,00 %
19.06.2016 09:46 14,8 C 89 % 1019,4 hPa 0,0 l/m 4,2 km/h (1 Bft) W 271 0 min 0,000 mm 0,6 UV-I 101 W/m 13,0 C 14,8 C 6,4 km/h (2 Bft) 95,74 %
19.06.2016 09:48 14,8 C 89 % 1019,4 hPa 0,0 l/m 2,3 km/h (1 Bft) NW 309 0 min 0,000 mm 0,6 UV-I 114 W/m 13,0 C 14,8 C 4,8 km/h (1 Bft) 95,74 %
19.06.2016 09:50 14,8 C 90 % 1019,4 hPa 0,0 l/m 1,0 km/h (0 Bft) NW 304 0 min 0,000 mm 0,7 UV-I 117 W/m 13,2 C 14,8 C 3,2 km/h (1 Bft) 93,62 %
19.06.2016 09:52 14,8 C 90 % 1019,4 hPa 0,0 l/m 2,1 km/h (1 Bft) W-NW 282 0 min 0,000 mm 0,7 UV-I 117 W/m 13,2 C 14,8 C 6,4 km/h (2 Bft) 95,74 %
19.06.2016 09:54 14,8 C 90 % 1019,4 hPa 0,0 l/m 1,0 km/h (0 Bft) W-NW 294 0 min 0,000 mm 0,7 UV-I 125 W/m 13,2 C 14,8 C 3,2 km/h (1 Bft) 98,00 %
19.06.2016 09:56 14,8 C 90 % 1019,3 hPa 0,0 l/m 4,1 km/h (1 Bft) W-SW 258 0 min 0,000 mm 0,9 UV-I 139 W/m 13,2 C 14,8 C 8,0 km/h (2 Bft) 93,62 %
19.06.2016 09:58 14,8 C 91 % 1019,4 hPa 0,0 l/m 1,8 km/h (1 Bft) W-NW 302 0 min 0,000 mm 1,0 UV-I 152 W/m 13,3 C 14,8 C 3,2 km/h (1 Bft) 93,62 %
19.06.2016 10:00 14,9 C 90 % 1019,4 hPa 0,0 l/m 2,5 km/h (1 Bft) W 273 0 min 0,076 mm 1,0 UV-I 157 W/m 13,3 C 14,9 C 6,4 km/h (2 Bft) 97,92 %
19.06.2016 10:02 15,0 C 91 % 1019,4 hPa 0,0 l/m 0,7 km/h (0 Bft) W 273 0 min 0,000 mm 1,1 UV-I 168 W/m 13,5 C 15,0 C 3,2 km/h (1 Bft) 97,83 %
19.06.2016 10:04 15,0 C 90 % 1019,3 hPa 0,0 l/m 1,1 km/h (1 Bft) W 273 0 min 0,000 mm 1,2 UV-I 180 W/m 13,4 C 15,0 C 3,2 km/h (1 Bft) 95,74 %
19.06.2016 10:06 15,1 C 90 % 1019,3 hPa 0,0 l/m 3,3 km/h (1 Bft) W-NW 282 0 min 0,000 mm 1,2 UV-I 179 W/m 13,5 C 15,1 C 6,4 km/h (2 Bft) 97,87 %
19.06.2016 10:08 15,1 C 89 % 1019,3 hPa 0,0 l/m 2,7 km/h (1 Bft) N-NW 335 0 min 0,000 mm 1,0 UV-I 161 W/m 13,3 C 15,1 C 6,4 km/h (2 Bft) 97,87 %
19.06.2016 10:10 15,2 C 90 % 1019,4 hPa 0,0 l/m 2,2 km/h (1 Bft) W 277 0 min 0,000 mm 0,9 UV-I 141 W/m 13,6 C 15,2 C 4,8 km/h (1 Bft) 97,22 %
19.06.2016 10:12 15,2 C 88 % 1019,3 hPa 0,0 l/m 1,8 km/h (1 Bft) N 9 0 min 0,000 mm 0,8 UV-I 129 W/m 13,2 C 15,2 C 4,8 km/h (1 Bft) 100,00 %
19.06.2016 10:14 15,2 C 89 % 1019,4 hPa 0,0 l/m 2,5 km/h (1 Bft) N-NW 345 0 min 0,000 mm 0,8 UV-I 123 W/m 13,4 C 15,2 C 6,4 km/h (2 Bft) 97,87 %
19.06.2016 10:16 15,1 C 88 % 1019,4 hPa 0,0 l/m 4,0 km/h (1 Bft) N 349 0 min 0,000 mm 0,7 UV-I 118 W/m 13,1 C 15,1 C 9,7 km/h (2 Bft) 100,00 %
19.06.2016 10:18 15,1 C 88 % 1019,5 hPa 0,0 l/m 2,2 km/h (1 Bft) N 351 0 min 0,000 mm 0,7 UV-I 111 W/m 13,1 C 15,1 C 4,8 km/h (1 Bft) 98,28 %
19.06.2016 10:20 15,0 C 88 % 1019,5 hPa 0,0 l/m 1,7 km/h (1 Bft) N-NW 332 0 min 0,000 mm 0,6 UV-I 97 W/m 13,0 C 15,0 C 4,8 km/h (1 Bft) 100,00 %
19.06.2016 10:22 14,9 C 89 % 1019,4 hPa 0,0 l/m 1,2 km/h (1 Bft) NW 320 0 min 0,000 mm 0,5 UV-I 80 W/m 13,1 C 14,9 C 4,8 km/h (1 Bft) 100,00 %
19.06.2016 10:24 14,9 C 88 % 1019,5 hPa 0,0 l/m 1,1 km/h (1 Bft) NW 319 0 min 0,000 mm 0,1 UV-I 71 W/m 12,9 C 14,9 C 4,8 km/h (1 Bft) 100,00 %
19.06.2016 10:26 14,9 C 89 % 1019,5 hPa 0,0 l/m 2,4 km/h (1 Bft) N 5 0 min 0,000 mm 0,0 UV-I 68 W/m 13,1 C 14,9 C 4,8 km/h (1 Bft) 97,37 %
19.06.2016 10:28 14,8 C 89 % 1019,5 hPa 0,0 l/m 1,2 km/h (1 Bft) N-NW 342 0 min 0,000 mm 0,0 UV-I 67 W/m 13,0 C 14,8 C 3,2 km/h (1 Bft) 100,00 %
19.06.2016 10:30 14,8 C 89 % 1019,6 hPa 0,0 l/m 2,2 km/h (1 Bft) N-NW 327 0 min 0,000 mm 0,0 UV-I 67 W/m 13,0 C 14,8 C 4,8 km/h (1 Bft) 100,00 %
19.06.2016 10:32 14,8 C 89 % 1019,6 hPa 0,0 l/m 2,1 km/h (1 Bft) N 11 0 min 0,000 mm 0,0 UV-I 69 W/m 13,0 C 14,8 C 6,4 km/h (2 Bft) 100,00 %
19.06.2016 10:34 14,7 C 90 % 1019,6 hPa 0,0 l/m 3,2 km/h (1 Bft) N 11 0 min 0,000 mm 0,0 UV-I 68 W/m 13,1 C 14,7 C 8,0 km/h (2 Bft) 100,00 %
19.06.2016 10:36 14,7 C 90 % 1019,6 hPa 0,0 l/m 2,2 km/h (1 Bft) N 351 0 min 0,000 mm 0,0 UV-I 68 W/m 13,1 C 14,7 C 4,8 km/h (1 Bft) 100,00 %
19.06.2016 10:38 14,7 C 90 % 1019,6 hPa 0,0 l/m 5,1 km/h (1 Bft) N-NW 334 0 min 0,000 mm 0,0 UV-I 68 W/m 13,1 C 14,7 C 11,3 km/h (2 Bft) 100,00 %
19.06.2016 10:40 14,6 C 90 % 1019,6 hPa 0,0 l/m 2,7 km/h (1 Bft) N-NW 336 0 min 0,000 mm 0,0 UV-I 69 W/m 13,0 C 14,6 C 6,4 km/h (2 Bft) 100,00 %
19.06.2016 10:42 14,5 C 90 % 1019,7 hPa 0,0 l/m 2,0 km/h (1 Bft) N-NW 340 0 min 0,000 mm 0,0 UV-I 75 W/m 12,9 C 14,5 C 3,2 km/h (1 Bft) 97,96 %
19.06.2016 10:44 14,4 C 91 % 1019,7 hPa 0,0 l/m 1,8 km/h (1 Bft) NW 310 0 min 0,000 mm 0,6 UV-I 92 W/m 12,9 C 14,4 C 3,2 km/h (1 Bft) 97,87 %
19.06.2016 10:46 14,4 C 91 % 1019,6 hPa 0,0 l/m 1,4 km/h (1 Bft) NW 310 0 min 0,000 mm 0,7 UV-I 118 W/m 12,9 C 14,4 C 3,2 km/h (1 Bft) 100,00 %
19.06.2016 10:48 14,4 C 91 % 1019,6 hPa 0,0 l/m 2,5 km/h (1 Bft) N 5 0 min 0,000 mm 0,9 UV-I 146 W/m 12,9 C 14,4 C 8,0 km/h (2 Bft) 100,00 %
19.06.2016 10:50 14,4 C 92 % 1019,6 hPa 0,0 l/m 1,4 km/h (1 Bft) N 5 0 min 0,000 mm 1,1 UV-I 175 W/m 13,1 C 14,4 C 3,2 km/h (1 Bft) 100,00 %
19.06.2016 10:52 14,5 C 92 % 1019,6 hPa 0,0 l/m 0,8 km/h (0 Bft) N 360 0 min 0,000 mm 1,3 UV-I 206 W/m 13,2 C 14,5 C 3,2 km/h (1 Bft) 100,00 %
19.06.2016 10:54 14,6 C 92 % 1019,6 hPa 0,0 l/m 0,8 km/h (0 Bft) N-NW 338 0 min 0,000 mm 1,4 UV-I 227 W/m 13,3 C 14,6 C 3,2 km/h (1 Bft) 97,87 %
19.06.2016 10:56 14,7 C 92 % 1019,6 hPa 0,0 l/m 1,3 km/h (1 Bft) N-NW 328 0 min 0,000 mm 1,6 UV-I 250 W/m 13,4 C 14,7 C 4,8 km/h (1 Bft) 97,87 %
19.06.2016 10:58 14,8 C 91 % 1019,6 hPa 0,0 l/m 2,3 km/h (1 Bft) W-NW 296 0 min 0,000 mm 1,6 UV-I 256 W/m 13,3 C 14,8 C 4,8 km/h (1 Bft) 100,00 %
19.06.2016 11:00 14,9 C 92 % 1019,6 hPa 0,0 l/m 1,3 km/h (1 Bft) NW 309 0 min 0,076 mm 1,8 UV-I 278 W/m 13,6 C 14,9 C 3,2 km/h (1 Bft) 100,00 %
19.06.2016 11:02 14,9 C 90 % 1019,6 hPa 0,0 l/m 3,2 km/h (1 Bft) N-NW 346 0 min 0,000 mm 1,8 UV-I 289 W/m 13,3 C 14,9 C 6,4 km/h (2 Bft) 100,00 %
19.06.2016 11:04 15,1 C 91 % 1019,6 hPa 0,0 l/m 2,9 km/h (1 Bft) N-NO 14 0 min 0,000 mm 1,8 UV-I 286 W/m 13,6 C 15,1 C 11,3 km/h (2 Bft) 100,00 %
19.06.2016 11:06 15,2 C 91 % 1019,6 hPa 0,0 l/m 3,4 km/h (1 Bft) N 5 0 min 0,000 mm 1,9 UV-I 286 W/m 13,7 C 15,2 C 6,4 km/h (2 Bft) 93,62 %
19.06.2016 11:08 15,1 C 90 % 1019,6 hPa 0,0 l/m 4,2 km/h (1 Bft) N 355 0 min 0,000 mm 1,9 UV-I 263 W/m 13,5 C 15,1 C 9,7 km/h (2 Bft) 100,00 %
19.06.2016 11:10 15,1 C 90 % 1019,5 hPa 0,0 l/m 5,3 km/h (1 Bft) N 360 0 min 0,000 mm 1,6 UV-I 219 W/m 13,5 C 15,1 C 12,9 km/h (3 Bft) 100,00 %
19.06.2016 11:12 15,0 C 90 % 1019,6 hPa 0,0 l/m 6,2 km/h (2 Bft) W-NW 294 0 min 0,000 mm 1,5 UV-I 205 W/m 13,4 C 15,0 C 14,5 km/h (3 Bft) 97,87 %
19.06.2016 11:14 15,0 C 90 % 1019,6 hPa 0,0 l/m 7,3 km/h (2 Bft) NW 306 0 min 0,000 mm 1,5 UV-I 207 W/m 13,4 C 14,5 C 12,9 km/h (3 Bft) 97,87 %
19.06.2016 11:16 14,9 C 90 % 1019,7 hPa 0,0 l/m 5,4 km/h (1 Bft) W-NW 298 0 min 0,000 mm 1,5 UV-I 206 W/m 13,3 C 14,9 C 11,3 km/h (2 Bft) 100,00 %
19.06.2016 11:18 14,8 C 90 % 1019,7 hPa 0,0 l/m 2,9 km/h (1 Bft) N-NW 342 0 min 0,000 mm 1,5 UV-I 205 W/m 13,2 C 14,8 C 8,0 km/h (2 Bft) 98,00 %
19.06.2016 11:20 14,8 C 91 % 1019,6 hPa 0,0 l/m 4,3 km/h (1 Bft) N-NO 29 0 min 0,000 mm 1,6 UV-I 213 W/m 13,3 C 14,8 C 9,7 km/h (2 Bft) 100,00 %
19.06.2016 11:22 14,9 C 91 % 1019,7 hPa 0,0 l/m 3,3 km/h (1 Bft) N-NW 328 0 min 0,000 mm 1,6 UV-I 228 W/m 13,4 C 14,9 C 8,0 km/h (2 Bft) 97,87 %
19.06.2016 11:24 14,9 C 91 % 1019,7 hPa 0,0 l/m 1,8 km/h (1 Bft) N 355 0 min 0,000 mm 1,7 UV-I 236 W/m 13,4 C 14,9 C 3,2 km/h (1 Bft) 97,22 %
19.06.2016 11:26 15,0 C 92 % 1019,6 hPa 0,0 l/m 2,5 km/h (1 Bft) N-NW 330 0 min 0,000 mm 1,8 UV-I 252 W/m 13,7 C 15,0 C 8,0 km/h (2 Bft) 98,11 %
19.06.2016 11:28 15,1 C 91 % 1019,6 hPa 0,0 l/m 5,1 km/h (1 Bft) N-NO 15 0 min 0,000 mm 2,0 UV-I 281 W/m 13,6 C 15,1 C 9,7 km/h (2 Bft) 97,87 %
19.06.2016 11:30 15,2 C 91 % 1019,6 hPa 0,0 l/m 2,9 km/h (1 Bft) N 5 0 min 0,000 mm 2,1 UV-I 290 W/m 13,7 C 15,2 C 8,0 km/h (2 Bft) 93,62 %
19.06.2016 11:32 15,2 C 91 % 1019,7 hPa 0,0 l/m 2,8 km/h (1 Bft) N-NW 343 0 min 0,000 mm 2,1 UV-I 294 W/m 13,7 C 15,2 C 6,4 km/h (2 Bft) 95,74 %
19.06.2016 11:34 15,3 C 90 % 1019,7 hPa 0,0 l/m 3,1 km/h (1 Bft) N-NW 333 0 min 0,000 mm 2,1 UV-I 296 W/m 13,7 C 15,3 C 6,4 km/h (2 Bft) 95,74 %
19.06.2016 11:36 15,3 C 90 % 1019,7 hPa 0,0 l/m 1,3 km/h (1 Bft) N-NO 14 0 min 0,000 mm 2,1 UV-I 301 W/m 13,7 C 15,3 C 4,8 km/h (1 Bft) 95,74 %
19.06.2016 11:38 15,3 C 90 % 1019,7 hPa 0,0 l/m 0,8 km/h (0 Bft) N-NW 331 0 min 0,000 mm 2,1 UV-I 300 W/m 13,7 C 15,3 C 3,2 km/h (1 Bft) 95,74 %
19.06.2016 11:40 15,4 C 90 % 1019,7 hPa 0,0 l/m 3,0 km/h (1 Bft) N 9 0 min 0,000 mm 2,0 UV-I 280 W/m 13,8 C 15,4 C 6,4 km/h (2 Bft) 95,74 %
19.06.2016 11:42 15,4 C 89 % 1019,7 hPa 0,0 l/m 2,5 km/h (1 Bft) W-NW 298 0 min 0,000 mm 2,0 UV-I 278 W/m 13,6 C 15,4 C 6,4 km/h (2 Bft) 93,62 %
19.06.2016 11:44 15,4 C 90 % 1019,7 hPa 0,0 l/m 4,0 km/h (1 Bft) W-NW 302 0 min 0,000 mm 2,0 UV-I 286 W/m 13,8 C 15,4 C 9,7 km/h (2 Bft) 98,11 %
19.06.2016 11:46 15,5 C 89 % 1019,6 hPa 0,0 l/m 3,2 km/h (1 Bft) NW 306 0 min 0,000 mm 2,0 UV-I 288 W/m 13,7 C 15,5 C 9,7 km/h (2 Bft) 97,37 %
19.06.2016 11:48 15,6 C 89 % 1019,6 hPa 0,0 l/m 2,8 km/h (1 Bft) NW 322 0 min 0,000 mm 2,0 UV-I 290 W/m 13,8 C 15,6 C 6,4 km/h (2 Bft) 95,74 %
19.06.2016 11:50 15,6 C 88 % 1019,6 hPa 0,0 l/m 3,4 km/h (1 Bft) W-NW 297 0 min 0,000 mm 2,2 UV-I 304 W/m 13,6 C 15,6 C 11,3 km/h (2 Bft) 95,74 %
19.06.2016 11:52 15,5 C 87 % 1019,6 hPa 0,0 l/m 5,1 km/h (1 Bft) NW 324 0 min 0,000 mm 2,2 UV-I 304 W/m 13,3 C 15,5 C 9,7 km/h (2 Bft) 97,87 %
19.06.2016 11:54 15,5 C 88 % 1019,6 hPa 0,0 l/m 3,7 km/h (1 Bft) NW 304 0 min 0,000 mm 2,0 UV-I 278 W/m 13,5 C 15,5 C 6,4 km/h (2 Bft) 97,87 %
19.06.2016 11:56 15,5 C 88 % 1019,6 hPa 0,0 l/m 2,9 km/h (1 Bft) N-NO 12 0 min 0,000 mm 2,1 UV-I 294 W/m 13,5 C 15,5 C 6,4 km/h (2 Bft) 95,74 %
19.06.2016 11:58 15,6 C 88 % 1019,6 hPa 0,0 l/m 3,3 km/h (1 Bft) N 11 0 min 0,000 mm 2,4 UV-I 332 W/m 13,6 C 15,6 C 12,9 km/h (3 Bft) 97,87 %
19.06.2016 12:00 15,6 C 88 % 1019,5 hPa 0,0 l/m 2,9 km/h (1 Bft) NW 325 0 min 0,153 mm 2,6 UV-I 350 W/m 13,6 C 15,6 C 4,8 km/h (1 Bft) 98,00 %
19.06.2016 12:02 15,7 C 86 % 1019,5 hPa 0,0 l/m 3,5 km/h (1 Bft) NW 315 0 min 0,000 mm 2,6 UV-I 354 W/m 13,4 C 15,7 C 12,9 km/h (3 Bft) 100,00 %
19.06.2016 12:04 15,7 C 85 % 1019,6 hPa 0,0 l/m 3,0 km/h (1 Bft) W 259 0 min 0,000 mm 2,6 UV-I 352 W/m 13,2 C 15,7 C 4,8 km/h (1 Bft) 98,00 %
19.06.2016 12:06 15,8 C 87 % 1019,6 hPa 0,0 l/m 2,5 km/h (1 Bft) N-NW 337 0 min 0,000 mm 2,8 UV-I 381 W/m 13,6 C 15,8 C 6,4 km/h (2 Bft) 100,00 %
19.06.2016 12:08 15,9 C 86 % 1019,6 hPa 0,0 l/m 3,2 km/h (1 Bft) N 9 0 min 0,000 mm 3,2 UV-I 441 W/m 13,6 C 15,9 C 6,4 km/h (2 Bft) 100,00 %
19.06.2016 12:10 15,9 C 84 % 1019,6 hPa 0,0 l/m 6,5 km/h (2 Bft) NW 325 2 min 0,000 mm 3,4 UV-I 501 W/m 13,2 C 15,9 C 17,7 km/h (3 Bft) 100,00 %
19.06.2016 12:12 15,9 C 83 % 1019,5 hPa 0,0 l/m 4,7 km/h (1 Bft) N 355 0 min 0,000 mm 3,6 UV-I 480 W/m 13,0 C 15,9 C 8,0 km/h (2 Bft) 100,00 %
19.06.2016 12:14 16,0 C 84 % 1019,4 hPa 0,0 l/m 2,5 km/h (1 Bft) NW 315 2 min 0,000 mm 4,3 UV-I 625 W/m 13,3 C 16,0 C 6,4 km/h (2 Bft) 98,00 %
19.06.2016 12:16 16,2 C 83 % 1019,4 hPa 0,0 l/m 4,9 km/h (1 Bft) N 355 2 min 0,000 mm 4,2 UV-I 574 W/m 13,3 C 16,2 C 14,5 km/h (3 Bft) 100,00 %
19.06.2016 12:18 16,3 C 81 % 1019,4 hPa 0,0 l/m 5,5 km/h (1 Bft) W 274 2 min 0,000 mm 4,2 UV-I 566 W/m 13,0 C 16,3 C 12,9 km/h (3 Bft) 100,00 %
19.06.2016 12:20 16,3 C 81 % 1019,4 hPa 0,0 l/m 6,9 km/h (2 Bft) N 11 2 min 0,000 mm 4,0 UV-I 518 W/m 13,0 C 16,0 C 14,5 km/h (3 Bft) 100,00 %
19.06.2016 12:22 16,3 C 81 % 1019,3 hPa 0,0 l/m 4,5 km/h (1 Bft) NW 308 2 min 0,000 mm 4,2 UV-I 499 W/m 13,0 C 16,3 C 11,3 km/h (2 Bft) 100,00 %
19.06.2016 12:24 16,3 C 82 % 1019,4 hPa 0,0 l/m 7,1 km/h (2 Bft) W 276 2 min 0,000 mm 4,2 UV-I 567 W/m 13,2 C 15,9 C 16,1 km/h (3 Bft) 96,00 %
19.06.2016 12:26 16,3 C 82 % 1019,3 hPa 0,0 l/m 7,4 km/h (2 Bft) NO 43 2 min 0,000 mm 4,4 UV-I 591 W/m 13,2 C 15,8 C 14,5 km/h (3 Bft) 97,87 %
19.06.2016 12:28 16,4 C 83 % 1019,3 hPa 0,0 l/m 4,9 km/h (1 Bft) W-NW 293 2 min 0,000 mm 4,4 UV-I 604 W/m 13,5 C 16,4 C 12,9 km/h (3 Bft) 98,00 %
19.06.2016 12:30 16,6 C 83 % 1019,3 hPa 0,0 l/m 7,2 km/h (2 Bft) W-NW 293 2 min 0,000 mm 4,7 UV-I 626 W/m 13,7 C 16,2 C 14,5 km/h (3 Bft) 97,87 %
19.06.2016 12:32 16,7 C 81 % 1019,3 hPa 0,0 l/m 8,2 km/h (2 Bft) W-NW 292 2 min 0,000 mm 5,3 UV-I 705 W/m 13,4 C 15,8 C 19,3 km/h (3 Bft) 100,00 %
19.06.2016 12:34 16,8 C 82 % 1019,3 hPa 0,0 l/m 5,0 km/h (1 Bft) N-NW 332 2 min 0,000 mm 5,0 UV-I 665 W/m 13,7 C 16,8 C 12,9 km/h (3 Bft) 97,87 %
19.06.2016 12:36 16,8 C 80 % 1019,4 hPa 0,0 l/m 7,6 km/h (2 Bft) W-SW 256 2 min 0,000 mm 4,7 UV-I 606 W/m 13,3 C 16,2 C 14,5 km/h (3 Bft) 97,87 %
19.06.2016 12:38 16,8 C 78 % 1019,4 hPa 0,0 l/m 5,4 km/h (1 Bft) NW 311 2 min 0,000 mm 4,7 UV-I 607 W/m 12,9 C 16,8 C 11,3 km/h (2 Bft) 100,00 %
19.06.2016 12:40 16,9 C 80 % 1019,4 hPa 0,0 l/m 2,3 km/h (1 Bft) NW 309 2 min 0,000 mm 4,6 UV-I 582 W/m 13,4 C 16,9 C 6,4 km/h (2 Bft) 97,87 %
19.06.2016 12:42 17,0 C 79 % 1019,5 hPa 0,0 l/m 5,2 km/h (1 Bft) N-NW 333 2 min 0,000 mm 4,8 UV-I 565 W/m 13,3 C 17,0 C 12,9 km/h (3 Bft) 97,87 %
19.06.2016 12:44 17,1 C 79 % 1019,4 hPa 0,0 l/m 4,8 km/h (1 Bft) N-NW 331 2 min 0,000 mm 5,1 UV-I 570 W/m 13,4 C 17,1 C 11,3 km/h (2 Bft) 100,00 %
19.06.2016 12:46 17,2 C 77 % 1019,5 hPa 0,0 l/m 7,8 km/h (2 Bft) W-NW 293 2 min 0,000 mm 5,3 UV-I 761 W/m 13,1 C 16,5 C 17,7 km/h (3 Bft) 100,00 %
19.06.2016 12:48 17,3 C 78 % 1019,5 hPa 0,0 l/m 6,5 km/h (2 Bft) NO 41 2 min 0,000 mm 5,5 UV-I 788 W/m 13,4 C 17,3 C 12,9 km/h (3 Bft) 94,00 %
19.06.2016 12:50 17,3 C 79 % 1019,4 hPa 0,0 l/m 2,8 km/h (1 Bft) N-NW 342 2 min 0,000 mm 5,6 UV-I 842 W/m 13,6 C 17,3 C 4,8 km/h (1 Bft) 100,00 %
19.06.2016 12:52 17,5 C 78 % 1019,4 hPa 0,0 l/m 3,2 km/h (1 Bft) N-NW 327 2 min 0,000 mm 5,5 UV-I 828 W/m 13,6 C 17,5 C 6,4 km/h (2 Bft) 97,87 %
19.06.2016 12:54 17,6 C 76 % 1019,4 hPa 0,0 l/m 7,2 km/h (2 Bft) N-NW 348 2 min 0,000 mm 4,8 UV-I 660 W/m 13,3 C 17,2 C 14,5 km/h (3 Bft) 100,00 %
19.06.2016 12:56 17,4 C 75 % 1019,3 hPa 0,0 l/m 6,5 km/h (2 Bft) W-NW 286 2 min 0,000 mm 4,9 UV-I 667 W/m 12,9 C 17,4 C 14,5 km/h (3 Bft) 100,00 %
19.06.2016 12:58 17,3 C 76 % 1019,3 hPa 0,0 l/m 5,0 km/h (1 Bft) W-NW 284 2 min 0,000 mm 4,7 UV-I 639 W/m 13,0 C 17,3 C 14,5 km/h (3 Bft) 100,00 %
19.06.2016 13:00 17,3 C 78 % 1019,3 hPa 0,0 l/m 3,9 km/h (1 Bft) W-SW 253 2 min 0,330 mm 4,5 UV-I 564 W/m 13,4 C 17,3 C 8,0 km/h (2 Bft) 100,00 %
19.06.2016 13:02 17,4 C 77 % 1019,3 hPa 0,0 l/m 4,2 km/h (1 Bft) N 5 2 min 0,000 mm 4,8 UV-I 564 W/m 13,3 C 17,4 C 11,3 km/h (2 Bft) 100,00 %
19.06.2016 13:04 17,5 C 76 % 1019,3 hPa 0,0 l/m 3,7 km/h (1 Bft) SW 234 2 min 0,000 mm 3,9 UV-I 535 W/m 13,2 C 17,5 C 8,0 km/h (2 Bft) 100,00 %
19.06.2016 13:06 17,4 C 79 % 1019,3 hPa 0,0 l/m 1,3 km/h (1 Bft) S 180 0 min 0,000 mm 3,6 UV-I 414 W/m 13,7 C 17,4 C 1,6 km/h (1 Bft) 100,00 %
19.06.2016 13:08 17,5 C 79 % 1019,3 hPa 0,0 l/m 5,0 km/h (1 Bft) W-NW 293 0 min 0,000 mm 3,5 UV-I 397 W/m 13,8 C 17,5 C 9,7 km/h (2 Bft) 100,00 %
19.06.2016 13:10 17,4 C 78 % 1019,2 hPa 0,0 l/m 5,3 km/h (1 Bft) N 11 0 min 0,000 mm 3,3 UV-I 385 W/m 13,5 C 17,4 C 11,3 km/h (2 Bft) 100,00 %
19.06.2016 13:12 17,3 C 76 % 1019,3 hPa 0,0 l/m 6,9 km/h (2 Bft) W 273 0 min 0,000 mm 3,1 UV-I 367 W/m 13,0 C 17,1 C 16,1 km/h (3 Bft) 100,00 %
19.06.2016 13:14 17,2 C 77 % 1019,3 hPa 0,0 l/m 6,0 km/h (2 Bft) N-NW 329 0 min 0,000 mm 3,2 UV-I 373 W/m 13,1 C 17,2 C 12,9 km/h (3 Bft) 100,00 %
19.06.2016 13:16 17,2 C 78 % 1019,3 hPa 0,0 l/m 3,5 km/h (1 Bft) W-NW 289 0 min 0,000 mm 3,3 UV-I 404 W/m 13,3 C 17,2 C 9,7 km/h (2 Bft) 98,00 %
19.06.2016 13:18 17,1 C 77 % 1019,2 hPa 0,0 l/m 4,5 km/h (1 Bft) N-NW 336 0 min 0,000 mm 3,1 UV-I 401 W/m 13,0 C 17,1 C 12,9 km/h (3 Bft) 100,00 %
19.06.2016 13:20 17,2 C 78 % 1019,2 hPa 0,0 l/m 4,3 km/h (1 Bft) W-NW 295 0 min 0,000 mm 3,3 UV-I 429 W/m 13,3 C 17,2 C 9,7 km/h (2 Bft) 100,00 %
19.06.2016 13:22 17,3 C 79 % 1019,2 hPa 0,0 l/m 1,7 km/h (1 Bft) NW 304 0 min 0,000 mm 3,6 UV-I 473 W/m 13,6 C 17,3 C 4,8 km/h (1 Bft) 100,00 %
19.06.2016 13:24 17,4 C 78 % 1019,2 hPa 0,0 l/m 3,4 km/h (1 Bft) W 281 0 min 0,000 mm 3,6 UV-I 473 W/m 13,5 C 17,4 C 6,4 km/h (2 Bft) 100,00 %
19.06.2016 13:26 17,5 C 78 % 1019,3 hPa 0,0 l/m 2,5 km/h (1 Bft) W 278 0 min 0,000 mm 3,3 UV-I 448 W/m 13,6 C 17,5 C 4,8 km/h (1 Bft) 95,74 %
19.06.2016 13:28 17,5 C 76 % 1019,3 hPa 0,0 l/m 4,9 km/h (1 Bft) NW 312 0 min 0,000 mm 3,0 UV-I 401 W/m 13,2 C 17,5 C 9,7 km/h (2 Bft) 96,00 %
19.06.2016 13:30 17,4 C 75 % 1019,3 hPa 0,0 l/m 5,7 km/h (1 Bft) N 9 0 min 0,000 mm 3,0 UV-I 407 W/m 12,9 C 17,4 C 12,9 km/h (3 Bft) 97,87 %
19.06.2016 13:32 17,3 C 78 % 1019,3 hPa 0,0 l/m 1,6 km/h (1 Bft) N 360 0 min 0,000 mm 3,1 UV-I 424 W/m 13,4 C 17,3 C 3,2 km/h (1 Bft) 97,87 %
19.06.2016 13:34 17,3 C 81 % 1019,3 hPa 0,0 l/m 1,6 km/h (1 Bft) N-NW 341 0 min 0,000 mm 3,0 UV-I 416 W/m 14,0 C 17,3 C 4,8 km/h (1 Bft) 95,74 %
19.06.2016 13:36 17,6 C 82 % 1019,3 hPa 0,0 l/m 2,0 km/h (1 Bft) N 9 0 min 0,000 mm 3,3 UV-I 465 W/m 14,5 C 17,6 C 6,4 km/h (2 Bft) 97,87 %
19.06.2016 13:38 17,7 C 78 % 1019,3 hPa 0,0 l/m 3,9 km/h (1 Bft) NW 315 2 min 0,000 mm 3,6 UV-I 514 W/m 13,8 C 17,7 C 12,9 km/h (3 Bft) 97,87 %
19.06.2016 13:40 17,6 C 77 % 1019,3 hPa 0,0 l/m 5,3 km/h (1 Bft) W-NW 293 2 min 0,000 mm 3,7 UV-I 530 W/m 13,5 C 17,6 C 12,9 km/h (3 Bft) 95,74 %
19.06.2016 13:42 17,7 C 79 % 1019,2 hPa 0,0 l/m 3,6 km/h (1 Bft) NW 311 2 min 0,000 mm 3,5 UV-I 489 W/m 14,0 C 17,7 C 6,4 km/h (2 Bft) 95,74 %
19.06.2016 13:44 17,7 C 77 % 1019,1 hPa 0,0 l/m 2,8 km/h (1 Bft) W-SW 255 2 min 0,000 mm 3,5 UV-I 500 W/m 13,6 C 17,7 C 6,4 km/h (2 Bft) 95,74 %
19.06.2016 13:46 17,8 C 76 % 1019,1 hPa 0,0 l/m 4,6 km/h (1 Bft) N-NW 329 2 min 0,000 mm 3,9 UV-I 564 W/m 13,5 C 17,8 C 9,7 km/h (2 Bft) 97,87 %
19.06.2016 13:48 17,8 C 77 % 1019,0 hPa 0,0 l/m 3,9 km/h (1 Bft) W-NW 298 2 min 0,000 mm 4,4 UV-I 580 W/m 13,7 C 17,8 C 11,3 km/h (2 Bft) 97,87 %
19.06.2016 13:50 17,8 C 78 % 1019,0 hPa 0,0 l/m 4,7 km/h (1 Bft) NW 306 2 min 0,000 mm 5,1 UV-I 813 W/m 13,9 C 17,8 C 11,3 km/h (2 Bft) 97,87 %
19.06.2016 13:52 18,0 C 79 % 1018,9 hPa 0,0 l/m 3,9 km/h (1 Bft) N-NO 12 2 min 0,000 mm 5,0 UV-I 820 W/m 14,3 C 18,0 C 8,0 km/h (2 Bft) 95,74 %
19.06.2016 13:54 18,1 C 76 % 1018,9 hPa 0,0 l/m 5,5 km/h (1 Bft) W-NW 300 2 min 0,000 mm 4,1 UV-I 700 W/m 13,8 C 18,1 C 14,5 km/h (3 Bft) 95,74 %
19.06.2016 13:56 18,1 C 76 % 1018,9 hPa 0,0 l/m 3,5 km/h (1 Bft) N-NW 330 2 min 0,000 mm 4,6 UV-I 686 W/m 13,8 C 18,1 C 8,0 km/h (2 Bft) 97,87 %
19.06.2016 13:58 18,1 C 78 % 1018,8 hPa 0,0 l/m 1,6 km/h (1 Bft) NW 305 2 min 0,000 mm 4,4 UV-I 649 W/m 14,2 C 18,1 C 4,8 km/h (1 Bft) 97,22 %
19.06.2016 14:00 18,2 C 77 % 1018,8 hPa 0,0 l/m 1,4 km/h (1 Bft) W-NW 293 2 min 0,279 mm 3,9 UV-I 572 W/m 14,1 C 18,2 C 4,8 km/h (1 Bft) 100,00 %
19.06.2016 14:02 18,2 C 76 % 1018,8 hPa 0,0 l/m 3,8 km/h (1 Bft) NW 314 2 min 0,000 mm 4,0 UV-I 533 W/m 13,9 C 18,2 C 8,0 km/h (2 Bft) 97,87 %
19.06.2016 14:04 18,3 C 78 % 1018,8 hPa 0,0 l/m 2,1 km/h (1 Bft) W-NW 300 2 min 0,000 mm 4,5 UV-I 640 W/m 14,4 C 18,3 C 6,4 km/h (2 Bft) 100,00 %
19.06.2016 14:06 18,3 C 75 % 1018,8 hPa 0,0 l/m 3,6 km/h (1 Bft) NW 313 2 min 0,000 mm 4,0 UV-I 641 W/m 13,8 C 18,3 C 11,3 km/h (2 Bft) 100,00 %
19.06.2016 14:08 18,3 C 76 % 1018,8 hPa 0,0 l/m 6,0 km/h (2 Bft) NW 322 2 min 0,000 mm 4,1 UV-I 536 W/m 14,0 C 18,3 C 14,5 km/h (3 Bft) 100,00 %
19.06.2016 14:10 18,2 C 73 % 1018,8 hPa 0,0 l/m 4,0 km/h (1 Bft) W-SW 242 2 min 0,000 mm 3,8 UV-I 539 W/m 13,3 C 18,2 C 9,7 km/h (2 Bft) 97,87 %
19.06.2016 14:12 18,2 C 74 % 1018,8 hPa 0,0 l/m 2,5 km/h (1 Bft) N-NO 21 2 min 0,000 mm 3,5 UV-I 488 W/m 13,5 C 18,2 C 6,4 km/h (2 Bft) 100,00 %
19.06.2016 14:14 18,1 C 71 % 1018,8 hPa 0,0 l/m 4,0 km/h (1 Bft) W-NW 300 0 min 0,000 mm 3,3 UV-I 465 W/m 12,8 C 18,1 C 9,7 km/h (2 Bft) 97,87 %
19.06.2016 14:16 18,2 C 73 % 1018,8 hPa 0,0 l/m 2,6 km/h (1 Bft) NW 316 2 min 0,000 mm 3,4 UV-I 505 W/m 13,3 C 18,2 C 6,4 km/h (2 Bft) 100,00 %
19.06.2016 14:18 18,2 C 72 % 1018,8 hPa 0,0 l/m 6,2 km/h (2 Bft) W-NW 286 2 min 0,000 mm 3,6 UV-I 553 W/m 13,1 C 18,2 C 11,3 km/h (2 Bft) 100,00 %
19.06.2016 14:20 18,1 C 71 % 1018,8 hPa 0,0 l/m 5,2 km/h (1 Bft) W-SW 250 2 min 0,000 mm 3,4 UV-I 508 W/m 12,8 C 18,1 C 11,3 km/h (2 Bft) 100,00 %
19.06.2016 14:22 18,0 C 73 % 1018,7 hPa 0,0 l/m 5,8 km/h (2 Bft) NW 313 0 min 0,000 mm 3,2 UV-I 455 W/m 13,1 C 18,0 C 11,3 km/h (2 Bft) 97,87 %
19.06.2016 14:24 18,1 C 75 % 1018,7 hPa 0,0 l/m 3,0 km/h (1 Bft) W-SW 243 2 min 0,000 mm 3,9 UV-I 568 W/m 13,6 C 18,1 C 6,4 km/h (2 Bft) 100,00 %
19.06.2016 14:26 18,2 C 74 % 1018,7 hPa 0,0 l/m 2,6 km/h (1 Bft) N-NW 346 2 min 0,000 mm 4,0 UV-I 692 W/m 13,5 C 18,2 C 6,4 km/h (2 Bft) 97,87 %
19.06.2016 14:28 18,2 C 75 % 1018,7 hPa 0,0 l/m 4,7 km/h (1 Bft) W-NW 290 2 min 0,000 mm 3,8 UV-I 537 W/m 13,7 C 18,2 C 9,7 km/h (2 Bft) 97,87 %
19.06.2016 14:30 18,2 C 74 % 1018,8 hPa 0,0 l/m 5,9 km/h (2 Bft) W-SW 244 2 min 0,000 mm 3,6 UV-I 490 W/m 13,5 C 18,2 C 12,9 km/h (3 Bft) 97,87 %
19.06.2016 14:32 18,2 C 71 % 1018,8 hPa 0,0 l/m 5,2 km/h (1 Bft) N-NW 331 2 min 0,000 mm 4,2 UV-I 631 W/m 12,9 C 18,2 C 11,3 km/h (2 Bft) 95,74 %
19.06.2016 14:34 18,3 C 73 % 1018,7 hPa 0,0 l/m 5,8 km/h (2 Bft) SW 221 2 min 0,000 mm 5,0 UV-I 733 W/m 13,4 C 18,3 C 11,3 km/h (2 Bft) 100,00 %
19.06.2016 14:36 18,6 C 72 % 1018,8 hPa 0,0 l/m 8,4 km/h (2 Bft) SW 236 2 min 0,000 mm 5,3 UV-I 859 W/m 13,4 C 17,7 C 14,5 km/h (3 Bft) 100,00 %
19.06.2016 14:38 18,6 C 70 % 1018,7 hPa 0,0 l/m 6,8 km/h (2 Bft) W 261 2 min 0,000 mm 5,4 UV-I 831 W/m 13,0 C 18,4 C 11,3 km/h (2 Bft) 100,00 %
19.06.2016 14:40 18,8 C 71 % 1018,8 hPa 0,0 l/m 11,8 km/h (2 Bft) W 269 2 min 0,000 mm 5,4 UV-I 858 W/m 13,4 C 16,7 C 16,1 km/h (3 Bft) 100,00 %
19.06.2016 14:42 18,7 C 70 % 1018,7 hPa 0,0 l/m 5,2 km/h (1 Bft) N-NW 333 2 min 0,000 mm 5,3 UV-I 860 W/m 13,1 C 18,7 C 12,9 km/h (3 Bft) 100,00 %
19.06.2016 14:44 18,5 C 71 % 1018,7 hPa 0,0 l/m 4,8 km/h (1 Bft) W-SW 257 2 min 0,000 mm 4,8 UV-I 779 W/m 13,1 C 18,5 C 11,3 km/h (2 Bft) 97,87 %
19.06.2016 14:46 18,6 C 71 % 1018,8 hPa 0,0 l/m 7,7 km/h (2 Bft) SW 236 2 min 0,000 mm 4,3 UV-I 739 W/m 13,2 C 18,0 C 12,9 km/h (3 Bft) 97,87 %
19.06.2016 14:48 18,6 C 71 % 1018,8 hPa 0,0 l/m 9,1 km/h (2 Bft) SW 221 2 min 0,000 mm 4,6 UV-I 635 W/m 13,2 C 17,4 C 14,5 km/h (3 Bft) 100,00 %
19.06.2016 14:50 18,5 C 72 % 1018,9 hPa 0,0 l/m 7,9 km/h (2 Bft) W-SW 243 2 min 0,000 mm 4,7 UV-I 743 W/m 13,4 C 17,8 C 11,3 km/h (2 Bft) 100,00 %
19.06.2016 14:52 18,6 C 70 % 1018,9 hPa 0,0 l/m 6,9 km/h (2 Bft) W 269 2 min 0,000 mm 3,4 UV-I 802 W/m 13,0 C 18,4 C 14,5 km/h (3 Bft) 100,00 %
19.06.2016 14:54 18,5 C 70 % 1018,9 hPa 0,0 l/m 2,7 km/h (1 Bft) W 273 0 min 0,000 mm 2,7 UV-I 358 W/m 12,9 C 18,5 C 4,8 km/h (1 Bft) 100,00 %
19.06.2016 14:56 18,4 C 72 % 1018,9 hPa 0,0 l/m 3,9 km/h (1 Bft) N 355 0 min 0,000 mm 2,7 UV-I 376 W/m 13,3 C 18,4 C 11,3 km/h (2 Bft) 100,00 %
19.06.2016 14:58 18,3 C 75 % 1018,9 hPa 0,0 l/m 2,0 km/h (1 Bft) W 279 0 min 0,000 mm 3,0 UV-I 425 W/m 13,8 C 18,3 C 6,4 km/h (2 Bft) 100,00 %
19.06.2016 15:00 18,4 C 71 % 1018,9 hPa 0,0 l/m 4,7 km/h (1 Bft) NW 313 2 min 0,356 mm 3,5 UV-I 541 W/m 13,0 C 18,4 C 9,7 km/h (2 Bft) 100,00 %
19.06.2016 15:02 18,4 C 69 % 1018,9 hPa 0,0 l/m 3,5 km/h (1 Bft) W-NW 297 2 min 0,000 mm 3,4 UV-I 473 W/m 12,6 C 18,4 C 4,8 km/h (1 Bft) 100,00 %
19.06.2016 15:04 18,3 C 70 % 1018,9 hPa 0,0 l/m 1,2 km/h (1 Bft) W-NW 292 2 min 0,000 mm 3,6 UV-I 469 W/m 12,7 C 18,3 C 3,2 km/h (1 Bft) 100,00 %
19.06.2016 15:06 18,5 C 72 % 1018,9 hPa 0,0 l/m 6,4 km/h (2 Bft) W-NW 289 2 min 0,000 mm 3,8 UV-I 534 W/m 13,4 C 18,5 C 12,9 km/h (3 Bft) 100,00 %
19.06.2016 15:08 18,6 C 70 % 1018,8 hPa 0,0 l/m 6,8 km/h (2 Bft) SW 215 2 min 0,000 mm 3,8 UV-I 598 W/m 13,0 C 18,4 C 11,3 km/h (2 Bft) 100,00 %
19.06.2016 15:10 18,6 C 72 % 1018,9 hPa 0,0 l/m 2,8 km/h (1 Bft) S-SW 196 2 min 0,000 mm 3,7 UV-I 570 W/m 13,4 C 18,6 C 9,7 km/h (2 Bft) 100,00 %
19.06.2016 15:12 18,6 C 69 % 1018,9 hPa 0,0 l/m 9,1 km/h (2 Bft) W-SW 252 2 min 0,000 mm 3,4 UV-I 510 W/m 12,8 C 17,4 C 17,7 km/h (3 Bft) 93,62 %
19.06.2016 15:14 18,8 C 70 % 1019,0 hPa 0,0 l/m 4,3 km/h (1 Bft) W-NW 296 2 min 0,000 mm 3,6 UV-I 494 W/m 13,2 C 18,8 C 11,3 km/h (2 Bft) 100,00 %
19.06.2016 15:16 18,7 C 69 % 1019,0 hPa 0,0 l/m 2,4 km/h (1 Bft) NW 311 2 min 0,000 mm 3,4 UV-I 476 W/m 12,9 C 18,7 C 6,4 km/h (2 Bft) 100,00 %
19.06.2016 15:18 18,8 C 74 % 1019,0 hPa 0,0 l/m 2,5 km/h (1 Bft) W 265 2 min 0,000 mm 3,7 UV-I 673 W/m 14,1 C 18,8 C 6,4 km/h (2 Bft) 100,00 %
19.06.2016 15:20 18,9 C 69 % 1018,9 hPa 0,0 l/m 7,3 km/h (2 Bft) W-SW 252 2 min 0,000 mm 3,4 UV-I 559 W/m 13,1 C 18,5 C 17,7 km/h (3 Bft) 95,74 %
19.06.2016 15:22 18,8 C 68 % 1019,0 hPa 0,0 l/m 9,2 km/h (2 Bft) W-SW 250 2 min 0,000 mm 3,2 UV-I 518 W/m 12,8 C 17,6 C 12,9 km/h (3 Bft) 100,00 %
19.06.2016 15:24 18,7 C 70 % 1019,0 hPa 0,0 l/m 4,2 km/h (1 Bft) W 278 2 min 0,000 mm 2,8 UV-I 444 W/m 13,1 C 18,7 C 11,3 km/h (2 Bft) 96,00 %
19.06.2016 15:26 18,7 C 71 % 1019,0 hPa 0,0 l/m 6,7 km/h (2 Bft) SW 231 2 min 0,000 mm 2,7 UV-I 448 W/m 13,3 C 18,6 C 17,7 km/h (3 Bft) 93,62 %
19.06.2016 15:28 18,6 C 70 % 1019,0 hPa 0,0 l/m 9,2 km/h (2 Bft) W-SW 254 2 min 0,000 mm 2,8 UV-I 473 W/m 13,0 C 17,4 C 14,5 km/h (3 Bft) 97,87 %
19.06.2016 15:30 18,7 C 72 % 1019,0 hPa 0,0 l/m 7,2 km/h (2 Bft) W 267 2 min 0,000 mm 2,7 UV-I 456 W/m 13,5 C 18,3 C 11,3 km/h (2 Bft) 95,74 %
19.06.2016 15:32 18,7 C 69 % 1019,0 hPa 0,0 l/m 3,9 km/h (1 Bft) W 259 2 min 0,000 mm 2,6 UV-I 431 W/m 12,9 C 18,7 C 6,4 km/h (2 Bft) 95,74 %
19.06.2016 15:34 18,7 C 69 % 1019,1 hPa 0,0 l/m 5,3 km/h (1 Bft) W 262 0 min 0,000 mm 2,5 UV-I 424 W/m 12,9 C 18,7 C 12,9 km/h (3 Bft) 97,87 %
19.06.2016 15:36 18,7 C 67 % 1019,1 hPa 0,0 l/m 5,4 km/h (1 Bft) W-SW 238 2 min 0,000 mm 2,5 UV-I 429 W/m 12,4 C 18,7 C 9,7 km/h (2 Bft) 97,37 %
19.06.2016 15:38 18,8 C 71 % 1019,1 hPa 0,0 l/m 2,6 km/h (1 Bft) SW 217 0 min 0,000 mm 2,2 UV-I 376 W/m 13,4 C 18,8 C 6,4 km/h (2 Bft) 97,87 %
19.06.2016 15:40 18,7 C 65 % 1019,1 hPa 0,0 l/m 6,2 km/h (2 Bft) W-NW 294 0 min 0,000 mm 2,0 UV-I 327 W/m 12,0 C 18,7 C 11,3 km/h (2 Bft) 98,00 %
19.06.2016 15:42 18,7 C 67 % 1019,2 hPa 0,0 l/m 4,1 km/h (1 Bft) SW 236 0 min 0,000 mm 1,9 UV-I 314 W/m 12,4 C 18,7 C 9,7 km/h (2 Bft) 97,87 %
19.06.2016 15:44 18,6 C 66 % 1019,1 hPa 0,0 l/m 8,3 km/h (2 Bft) SW 236 0 min 0,000 mm 1,8 UV-I 307 W/m 12,1 C 17,8 C 12,9 km/h (3 Bft) 96,00 %
19.06.2016 15:46 18,6 C 68 % 1019,1 hPa 0,0 l/m 5,9 km/h (2 Bft) W-SW 249 0 min 0,000 mm 1,8 UV-I 313 W/m 12,6 C 18,6 C 11,3 km/h (2 Bft) 95,74 %
19.06.2016 15:48 18,6 C 68 % 1019,1 hPa 0,0 l/m 4,0 km/h (1 Bft) W 269 0 min 0,000 mm 1,9 UV-I 323 W/m 12,6 C 18,6 C 8,0 km/h (2 Bft) 97,87 %
19.06.2016 15:50 18,5 C 69 % 1019,1 hPa 0,0 l/m 3,1 km/h (1 Bft) SW 234 0 min 0,000 mm 1,9 UV-I 320 W/m 12,7 C 18,5 C 6,4 km/h (2 Bft) 97,87 %
19.06.2016 15:52 18,5 C 68 % 1019,1 hPa 0,0 l/m 5,3 km/h (1 Bft) W-SW 243 0 min 0,000 mm 1,8 UV-I 301 W/m 12,5 C 18,5 C 9,7 km/h (2 Bft) 97,87 %
19.06.2016 15:54 18,6 C 69 % 1019,1 hPa 0,0 l/m 6,2 km/h (2 Bft) W 266 0 min 0,000 mm 1,7 UV-I 290 W/m 12,8 C 18,6 C 9,7 km/h (2 Bft) 97,87 %
19.06.2016 15:56 18,6 C 71 % 1019,1 hPa 0,0 l/m 3,1 km/h (1 Bft) W 259 0 min 0,000 mm 1,7 UV-I 291 W/m 13,2 C 18,6 C 4,8 km/h (1 Bft) 97,44 %
19.06.2016 15:58 18,6 C 68 % 1019,1 hPa 0,0 l/m 2,9 km/h (1 Bft) W-NW 284 0 min 0,000 mm 1,7 UV-I 297 W/m 12,6 C 18,6 C 6,4 km/h (2 Bft) 97,87 %
19.06.2016 16:00 18,6 C 67 % 1019,0 hPa 0,0 l/m 4,4 km/h (1 Bft) S-SW 213 0 min 0,254 mm 1,8 UV-I 316 W/m 12,3 C 18,6 C 8,0 km/h (2 Bft) 100,00 %
19.06.2016 16:02 18,5 C 66 % 1019,0 hPa 0,0 l/m 7,6 km/h (2 Bft) SW 234 0 min 0,000 mm 1,9 UV-I 335 W/m 12,0 C 18,0 C 11,3 km/h (2 Bft) 97,87 %
19.06.2016 16:04 18,4 C 66 % 1019,0 hPa 0,0 l/m 4,4 km/h (1 Bft) W 264 0 min 0,000 mm 1,8 UV-I 324 W/m 11,9 C 18,4 C 6,4 km/h (2 Bft) 100,00 %
19.06.2016 16:06 18,5 C 67 % 1019,0 hPa 0,0 l/m 5,2 km/h (1 Bft) W-NW 284 0 min 0,000 mm 1,8 UV-I 315 W/m 12,3 C 18,5 C 6,4 km/h (2 Bft) 95,74 %
19.06.2016 16:08 18,6 C 68 % 1019,0 hPa 0,0 l/m 4,7 km/h (1 Bft) S 185 0 min 0,000 mm 1,7 UV-I 301 W/m 12,6 C 18,6 C 9,7 km/h (2 Bft) 100,00 %
19.06.2016 16:10 18,5 C 69 % 1019,0 hPa 0,0 l/m 6,5 km/h (2 Bft) W-SW 247 0 min 0,000 mm 1,6 UV-I 288 W/m 12,7 C 18,5 C 11,3 km/h (2 Bft) 97,87 %
19.06.2016 16:12 18,5 C 72 % 1019,0 hPa 0,0 l/m 10,4 km/h (2 Bft) W-SW 245 0 min 0,000 mm 1,5 UV-I 277 W/m 13,4 C 16,8 C 17,7 km/h (3 Bft) 97,87 %
19.06.2016 16:14 18,6 C 72 % 1019,0 hPa 0,0 l/m 10,0 km/h (2 Bft) W-SW 258 0 min 0,000 mm 1,5 UV-I 282 W/m 13,4 C 17,1 C 14,5 km/h (3 Bft) 100,00 %
19.06.2016 16:16 18,6 C 73 % 1019,0 hPa 0,0 l/m 7,7 km/h (2 Bft) S-SW 199 0 min 0,000 mm 1,6 UV-I 294 W/m 13,7 C 18,0 C 16,1 km/h (3 Bft) 97,87 %
19.06.2016 16:18 18,6 C 72 % 1018,9 hPa 0,0 l/m 6,8 km/h (2 Bft) W 263 0 min 0,000 mm 1,6 UV-I 293 W/m 13,4 C 18,4 C 11,3 km/h (2 Bft) 93,62 %
19.06.2016 16:20 18,6 C 73 % 1018,9 hPa 0,0 l/m 8,8 km/h (2 Bft) W-SW 244 0 min 0,000 mm 1,7 UV-I 306 W/m 13,7 C 17,6 C 12,9 km/h (3 Bft) 100,00 %
19.06.2016 16:22 18,6 C 74 % 1018,9 hPa 0,0 l/m 11,3 km/h (2 Bft) W-SW 238 0 min 0,000 mm 1,8 UV-I 331 W/m 13,9 C 16,6 C 16,1 km/h (3 Bft) 97,37 %
19.06.2016 16:24 18,6 C 73 % 1018,8 hPa 0,0 l/m 8,0 km/h (2 Bft) SW 227 0 min 0,000 mm 1,8 UV-I 332 W/m 13,7 C 17,9 C 14,5 km/h (3 Bft) 97,87 %
19.06.2016 16:26 18,6 C 72 % 1018,8 hPa 0,0 l/m 7,2 km/h (2 Bft) W-NW 288 0 min 0,000 mm 1,8 UV-I 320 W/m 13,4 C 18,2 C 14,5 km/h (3 Bft) 100,00 %
19.06.2016 16:28 18,7 C 73 % 1018,8 hPa 0,0 l/m 5,0 km/h (1 Bft) NW 306 0 min 0,000 mm 1,7 UV-I 305 W/m 13,8 C 18,7 C 9,7 km/h (2 Bft) 100,00 %
19.06.2016 16:30 18,6 C 70 % 1018,8 hPa 0,0 l/m 5,9 km/h (2 Bft) W-SW 258 0 min 0,000 mm 1,6 UV-I 277 W/m 13,0 C 18,6 C 11,3 km/h (2 Bft) 100,00 %
19.06.2016 16:32 18,5 C 71 % 1018,8 hPa 0,0 l/m 8,0 km/h (2 Bft) W 263 0 min 0,000 mm 1,4 UV-I 250 W/m 13,1 C 17,8 C 12,9 km/h (3 Bft) 100,00 %
19.06.2016 16:34 18,5 C 71 % 1018,8 hPa 0,0 l/m 4,9 km/h (1 Bft) W 280 0 min 0,000 mm 1,2 UV-I 221 W/m 13,1 C 18,5 C 8,0 km/h (2 Bft) 100,00 %
19.06.2016 16:36 18,4 C 72 % 1018,8 hPa 0,0 l/m 6,5 km/h (2 Bft) W 262 0 min 0,000 mm 1,0 UV-I 198 W/m 13,3 C 18,4 C 11,3 km/h (2 Bft) 95,74 %
19.06.2016 16:38 18,4 C 71 % 1018,8 hPa 0,0 l/m 9,2 km/h (2 Bft) W 259 0 min 0,000 mm 1,0 UV-I 198 W/m 13,0 C 17,2 C 16,1 km/h (3 Bft) 100,00 %
19.06.2016 16:40 18,4 C 72 % 1018,7 hPa 0,0 l/m 5,5 km/h (1 Bft) W-NW 283 0 min 0,000 mm 1,1 UV-I 218 W/m 13,3 C 18,4 C 11,3 km/h (2 Bft) 100,00 %
19.06.2016 16:42 18,4 C 73 % 1018,7 hPa 0,0 l/m 4,2 km/h (1 Bft) W-NW 289 0 min 0,000 mm 1,3 UV-I 239 W/m 13,5 C 18,4 C 9,7 km/h (2 Bft) 100,00 %
19.06.2016 16:44 18,4 C 73 % 1018,7 hPa 0,0 l/m 4,6 km/h (1 Bft) SW 232 0 min 0,000 mm 1,3 UV-I 242 W/m 13,5 C 18,4 C 9,7 km/h (2 Bft) 97,87 %
19.06.2016 16:46 18,4 C 73 % 1018,7 hPa 0,0 l/m 3,2 km/h (1 Bft) W-SW 242 0 min 0,000 mm 1,3 UV-I 233 W/m 13,5 C 18,4 C 6,4 km/h (2 Bft) 100,00 %
19.06.2016 16:48 18,4 C 72 % 1018,7 hPa 0,0 l/m 2,7 km/h (1 Bft) W 275 0 min 0,000 mm 1,2 UV-I 223 W/m 13,3 C 18,4 C 4,8 km/h (1 Bft) 100,00 %
19.06.2016 16:50 18,4 C 72 % 1018,6 hPa 0,0 l/m 5,1 km/h (1 Bft) SW 230 0 min 0,000 mm 1,1 UV-I 211 W/m 13,3 C 18,4 C 9,7 km/h (2 Bft) 100,00 %
19.06.2016 16:52 18,4 C 73 % 1018,6 hPa 0,0 l/m 8,5 km/h (2 Bft) W 274 0 min 0,000 mm 1,0 UV-I 190 W/m 13,5 C 17,5 C 12,9 km/h (3 Bft) 100,00 %
19.06.2016 16:54 18,4 C 73 % 1018,6 hPa 0,0 l/m 6,2 km/h (2 Bft) W 268 0 min 0,000 mm 0,8 UV-I 166 W/m 13,5 C 18,4 C 11,3 km/h (2 Bft) 100,00 %
19.06.2016 16:56 18,3 C 74 % 1018,7 hPa 0,0 l/m 7,7 km/h (2 Bft) W-SW 240 0 min 0,000 mm 0,7 UV-I 150 W/m 13,6 C 17,7 C 11,3 km/h (2 Bft) 100,00 %
19.06.2016 16:58 18,2 C 76 % 1018,6 hPa 0,0 l/m 5,3 km/h (1 Bft) SW 221 0 min 0,000 mm 0,8 UV-I 152 W/m 13,9 C 18,2 C 6,4 km/h (2 Bft) 100,00 %
19.06.2016 17:00 18,1 C 77 % 1018,6 hPa 0,0 l/m 5,0 km/h (1 Bft) W 266 0 min 0,178 mm 0,8 UV-I 157 W/m 14,0 C 18,1 C 8,0 km/h (2 Bft) 100,00 %
19.06.2016 17:02 18,1 C 77 % 1018,6 hPa 0,0 l/m 7,1 km/h (2 Bft) W-SW 242 0 min 0,000 mm 0,8 UV-I 156 W/m 14,0 C 17,8 C 14,5 km/h (3 Bft) 100,00 %
19.06.2016 17:04 18,1 C 74 % 1018,6 hPa 0,0 l/m 7,4 km/h (2 Bft) W-NW 294 0 min 0,000 mm 0,7 UV-I 157 W/m 13,4 C 17,6 C 12,9 km/h (3 Bft) 98,00 %
19.06.2016 17:06 18,2 C 72 % 1018,6 hPa 0,0 l/m 6,4 km/h (2 Bft) SW 217 0 min 0,000 mm 0,7 UV-I 163 W/m 13,1 C 18,2 C 11,3 km/h (2 Bft) 97,87 %
19.06.2016 17:08 18,2 C 72 % 1018,6 hPa 0,0 l/m 7,6 km/h (2 Bft) W-SW 239 0 min 0,000 mm 0,7 UV-I 160 W/m 13,1 C 17,6 C 12,9 km/h (3 Bft) 98,11 %
19.06.2016 17:10 18,2 C 71 % 1018,6 hPa 0,0 l/m 7,1 km/h (2 Bft) W-SW 244 0 min 0,000 mm 0,6 UV-I 151 W/m 12,9 C 17,9 C 9,7 km/h (2 Bft) 97,87 %
19.06.2016 17:12 18,2 C 75 % 1018,6 hPa 0,0 l/m 7,7 km/h (2 Bft) S-SW 213 0 min 0,000 mm 0,6 UV-I 140 W/m 13,7 C 17,6 C 14,5 km/h (3 Bft) 100,00 %
19.06.2016 17:14 18,1 C 76 % 1018,6 hPa 0,0 l/m 8,2 km/h (2 Bft) W 263 0 min 0,000 mm 0,6 UV-I 140 W/m 13,8 C 17,3 C 14,5 km/h (3 Bft) 97,87 %
19.06.2016 17:16 17,9 C 77 % 1018,6 hPa 0,0 l/m 7,1 km/h (2 Bft) S-SW 198 0 min 0,000 mm 0,6 UV-I 151 W/m 13,8 C 17,6 C 9,7 km/h (2 Bft) 100,00 %
19.06.2016 17:18 17,9 C 77 % 1018,6 hPa 0,0 l/m 6,6 km/h (2 Bft) W-SW 239 0 min 0,000 mm 0,6 UV-I 151 W/m 13,8 C 17,8 C 12,9 km/h (3 Bft) 97,92 %
19.06.2016 17:20 17,9 C 76 % 1018,6 hPa 0,0 l/m 9,1 km/h (2 Bft) W 263 0 min 0,000 mm 0,6 UV-I 144 W/m 13,6 C 16,7 C 14,5 km/h (3 Bft) 97,87 %
19.06.2016 17:22 18,0 C 76 % 1018,6 hPa 0,0 l/m 6,5 km/h (2 Bft) W 276 0 min 0,000 mm 0,5 UV-I 143 W/m 13,7 C 18,0 C 9,7 km/h (2 Bft) 100,00 %
19.06.2016 17:24 18,1 C 74 % 1018,5 hPa 0,0 l/m 4,3 km/h (1 Bft) W-SW 242 0 min 0,000 mm 0,6 UV-I 143 W/m 13,4 C 18,1 C 8,0 km/h (2 Bft) 98,00 %
19.06.2016 17:26 18,2 C 74 % 1018,5 hPa 0,0 l/m 4,8 km/h (1 Bft) S 181 0 min 0,000 mm 0,6 UV-I 152 W/m 13,5 C 18,2 C 9,7 km/h (2 Bft) 95,74 %
19.06.2016 17:28 18,2 C 72 % 1018,5 hPa 0,0 l/m 4,5 km/h (1 Bft) W-SW 242 0 min 0,000 mm 0,7 UV-I 169 W/m 13,1 C 18,2 C 8,0 km/h (2 Bft) 91,49 %
19.06.2016 17:30 18,2 C 73 % 1018,5 hPa 0,0 l/m 5,5 km/h (1 Bft) SW 236 0 min 0,000 mm 0,7 UV-I 193 W/m 13,3 C 18,2 C 9,7 km/h (2 Bft) 97,87 %
19.06.2016 17:32 18,3 C 72 % 1018,4 hPa 0,0 l/m 6,6 km/h (2 Bft) SW 227 0 min 0,000 mm 0,8 UV-I 257 W/m 13,2 C 18,2 C 11,3 km/h (2 Bft) 97,87 %
19.06.2016 17:34 18,4 C 72 % 1018,5 hPa 0,0 l/m 8,2 km/h (2 Bft) W-SW 245 0 min 0,000 mm 0,8 UV-I 220 W/m 13,3 C 17,6 C 12,9 km/h (3 Bft) 97,87 %
19.06.2016 17:36 18,5 C 70 % 1018,5 hPa 0,0 l/m 9,5 km/h (2 Bft) W-SW 251 0 min 0,000 mm 0,8 UV-I 209 W/m 12,9 C 17,2 C 16,1 km/h (3 Bft) 97,87 %
19.06.2016 17:38 18,5 C 70 % 1018,4 hPa 0,0 l/m 7,4 km/h (2 Bft) W-SW 258 0 min 0,000 mm 0,8 UV-I 203 W/m 12,9 C 18,0 C 12,9 km/h (3 Bft) 98,00 %
19.06.2016 17:40 18,4 C 70 % 1018,5 hPa 0,0 l/m 10,7 km/h (2 Bft) SW 232 0 min 0,000 mm 0,7 UV-I 196 W/m 12,8 C 16,6 C 17,7 km/h (3 Bft) 95,74 %
19.06.2016 17:42 18,5 C 71 % 1018,4 hPa 0,0 l/m 8,6 km/h (2 Bft) W 262 0 min 0,000 mm 0,7 UV-I 194 W/m 13,1 C 17,5 C 14,5 km/h (3 Bft) 97,87 %
19.06.2016 17:44 18,5 C 70 % 1018,5 hPa 0,0 l/m 10,4 km/h (2 Bft) W-SW 248 0 min 0,000 mm 0,7 UV-I 211 W/m 12,9 C 16,8 C 16,1 km/h (3 Bft) 95,74 %
19.06.2016 17:46 18,5 C 70 % 1018,5 hPa 0,0 l/m 7,6 km/h (2 Bft) N-NW 332 0 min 0,000 mm 0,7 UV-I 222 W/m 12,9 C 18,0 C 17,7 km/h (3 Bft) 97,87 %
19.06.2016 17:48 18,5 C 70 % 1018,4 hPa 0,0 l/m 3,6 km/h (1 Bft) W-SW 248 0 min 0,000 mm 0,7 UV-I 197 W/m 12,9 C 18,5 C 9,7 km/h (2 Bft) 97,37 %
19.06.2016 17:50 18,4 C 70 % 1018,3 hPa 0,0 l/m 5,6 km/h (1 Bft) W 271 0 min 0,000 mm 0,7 UV-I 191 W/m 12,8 C 18,4 C 12,9 km/h (3 Bft) 96,00 %
19.06.2016 17:52 18,4 C 71 % 1018,4 hPa 0,0 l/m 3,2 km/h (1 Bft) W-SW 249 0 min 0,000 mm 0,7 UV-I 188 W/m 13,0 C 18,4 C 6,4 km/h (2 Bft) 97,87 %
19.06.2016 17:54 18,4 C 71 % 1018,4 hPa 0,0 l/m 5,7 km/h (1 Bft) W-SW 254 0 min 0,000 mm 0,7 UV-I 176 W/m 13,0 C 18,4 C 12,9 km/h (3 Bft) 98,00 %
19.06.2016 17:56 18,4 C 68 % 1018,3 hPa 0,0 l/m 6,2 km/h (2 Bft) W 265 0 min 0,000 mm 0,6 UV-I 160 W/m 12,4 C 18,4 C 11,3 km/h (2 Bft) 100,00 %
19.06.2016 17:58 18,4 C 69 % 1018,3 hPa 0,0 l/m 4,9 km/h (1 Bft) W 269 0 min 0,000 mm 0,5 UV-I 142 W/m 12,6 C 18,4 C 9,7 km/h (2 Bft) 100,00 %
19.06.2016 18:00 18,4 C 69 % 1018,3 hPa 0,0 l/m 7,9 km/h (2 Bft) W-SW 240 0 min 0,000 mm 0,5 UV-I 138 W/m 12,6 C 17,7 C 14,5 km/h (3 Bft) 97,37 %
19.06.2016 18:02 18,3 C 68 % 1018,4 hPa 0,0 l/m 8,4 km/h (2 Bft) W 267 0 min 0,127 mm 0,5 UV-I 139 W/m 12,3 C 17,4 C 12,9 km/h (3 Bft) 97,87 %
19.06.2016 18:04 18,3 C 69 % 1018,3 hPa 0,0 l/m 5,3 km/h (1 Bft) W-SW 253 0 min 0,000 mm 0,5 UV-I 139 W/m 12,5 C 18,3 C 9,7 km/h (2 Bft) 95,74 %
19.06.2016 18:06 18,3 C 69 % 1018,3 hPa 0,0 l/m 9,4 km/h (2 Bft) W-SW 249 0 min 0,000 mm 0,5 UV-I 137 W/m 12,5 C 17,0 C 16,1 km/h (3 Bft) 100,00 %
19.06.2016 18:08 18,3 C 69 % 1018,4 hPa 0,0 l/m 8,6 km/h (2 Bft) W-NW 284 0 min 0,000 mm 0,5 UV-I 137 W/m 12,5 C 17,3 C 14,5 km/h (3 Bft) 100,00 %
19.06.2016 18:10 18,3 C 69 % 1018,4 hPa 0,0 l/m 8,5 km/h (2 Bft) W-SW 243 0 min 0,000 mm 0,5 UV-I 140 W/m 12,5 C 17,4 C 17,7 km/h (3 Bft) 97,87 %
19.06.2016 18:12 18,2 C 69 % 1018,4 hPa 0,0 l/m 7,0 km/h (2 Bft) W-SW 241 0 min 0,000 mm 0,5 UV-I 143 W/m 12,4 C 17,9 C 14,5 km/h (3 Bft) 100,00 %
19.06.2016 18:14 18,2 C 69 % 1018,4 hPa 0,0 l/m 5,6 km/h (1 Bft) W 270 0 min 0,000 mm 0,5 UV-I 144 W/m 12,4 C 18,2 C 11,3 km/h (2 Bft) 100,00 %
19.06.2016 18:16 18,2 C 71 % 1018,4 hPa 0,0 l/m 4,9 km/h (1 Bft) W-SW 243 0 min 0,000 mm 0,5 UV-I 143 W/m 12,9 C 18,2 C 11,3 km/h (2 Bft) 97,87 %
19.06.2016 18:18 18,2 C 71 % 1018,4 hPa 0,0 l/m 6,3 km/h (2 Bft) SW 230 0 min 0,000 mm 0,5 UV-I 152 W/m 12,9 C 18,2 C 9,7 km/h (2 Bft) 100,00 %
19.06.2016 18:20 18,2 C 73 % 1018,4 hPa 0,0 l/m 8,6 km/h (2 Bft) SW 231 0 min 0,000 mm 0,5 UV-I 155 W/m 13,3 C 17,2 C 12,9 km/h (3 Bft) 100,00 %
19.06.2016 18:22 18,1 C 76 % 1018,4 hPa 0,0 l/m 9,1 km/h (2 Bft) SW 229 0 min 0,000 mm 0,5 UV-I 142 W/m 13,8 C 16,9 C 12,9 km/h (3 Bft) 100,00 %
19.06.2016 18:24 18,0 C 77 % 1018,4 hPa 0,0 l/m 8,6 km/h (2 Bft) SW 223 0 min 0,000 mm 0,5 UV-I 133 W/m 13,9 C 17,0 C 16,1 km/h (3 Bft) 100,00 %
19.06.2016 18:26 17,9 C 76 % 1018,5 hPa 0,0 l/m 9,6 km/h (2 Bft) SW 220 0 min 0,000 mm 0,2 UV-I 125 W/m 13,6 C 16,5 C 14,5 km/h (3 Bft) 100,00 %
19.06.2016 18:28 17,8 C 78 % 1018,5 hPa 0,0 l/m 8,7 km/h (2 Bft) SW 220 0 min 0,000 mm 0,0 UV-I 113 W/m 13,9 C 16,7 C 14,5 km/h (3 Bft) 100,00 %
19.06.2016 18:30 17,7 C 78 % 1018,5 hPa 0,0 l/m 8,9 km/h (2 Bft) S 182 0 min 0,000 mm 0,0 UV-I 103 W/m 13,8 C 16,5 C 12,9 km/h (3 Bft) 97,92 %
19.06.2016 18:32 17,7 C 79 % 1018,5 hPa 0,0 l/m 7,0 km/h (2 Bft) W-SW 250 0 min 0,000 mm 0,0 UV-I 93 W/m 14,0 C 17,4 C 12,9 km/h (3 Bft) 98,00 %
19.06.2016 18:34 17,6 C 78 % 1018,5 hPa 0,0 l/m 5,3 km/h (1 Bft) W-SW 244 0 min 0,000 mm 0,0 UV-I 82 W/m 13,7 C 17,6 C 9,7 km/h (2 Bft) 100,00 %
19.06.2016 18:36 17,6 C 79 % 1018,5 hPa 0,0 l/m 5,2 km/h (1 Bft) W-SW 246 0 min 0,000 mm 0,0 UV-I 73 W/m 13,9 C 17,6 C 8,0 km/h (2 Bft) 100,00 %
19.06.2016 18:38 17,6 C 79 % 1018,6 hPa 0,0 l/m 5,5 km/h (1 Bft) W-SW 254 0 min 0,000 mm 0,0 UV-I 64 W/m 13,9 C 17,6 C 8,0 km/h (2 Bft) 100,00 %
19.06.2016 18:40 17,6 C 80 % 1018,5 hPa 0,0 l/m 5,7 km/h (1 Bft) SW 221 0 min 0,000 mm 0,0 UV-I 58 W/m 14,1 C 17,6 C 9,7 km/h (2 Bft) 97,87 %
19.06.2016 18:42 17,6 C 79 % 1018,5 hPa 0,0 l/m 6,8 km/h (2 Bft) W-SW 250 0 min 0,000 mm 0,0 UV-I 56 W/m 13,9 C 17,4 C 9,7 km/h (2 Bft) 97,87 %
19.06.2016 18:44 17,6 C 79 % 1018,5 hPa 0,0 l/m 6,3 km/h (2 Bft) W-SW 241 0 min 0,000 mm 0,0 UV-I 53 W/m 13,9 C 17,6 C 11,3 km/h (2 Bft) 100,00 %
19.06.2016 18:46 17,6 C 78 % 1018,5 hPa 0,0 l/m 7,6 km/h (2 Bft) W 279 0 min 0,000 mm 0,0 UV-I 52 W/m 13,7 C 17,0 C 16,1 km/h (3 Bft) 97,87 %
19.06.2016 18:48 17,6 C 77 % 1018,5 hPa 0,0 l/m 6,0 km/h (2 Bft) W 261 0 min 0,000 mm 0,0 UV-I 54 W/m 13,5 C 17,6 C 11,3 km/h (2 Bft) 100,00 %
19.06.2016 18:50 17,6 C 77 % 1018,5 hPa 0,0 l/m 7,4 km/h (2 Bft) S-SW 199 0 min 0,000 mm 0,0 UV-I 56 W/m 13,5 C 17,1 C 11,3 km/h (2 Bft) 100,00 %
19.06.2016 18:52 17,6 C 78 % 1018,4 hPa 0,0 l/m 8,4 km/h (2 Bft) W-SW 243 0 min 0,000 mm 0,0 UV-I 55 W/m 13,7 C 16,7 C 14,5 km/h (3 Bft) 100,00 %
19.06.2016 18:54 17,6 C 78 % 1018,5 hPa 0,0 l/m 7,0 km/h (2 Bft) S-SW 212 0 min 0,000 mm 0,0 UV-I 50 W/m 13,7 C 17,3 C 11,3 km/h (2 Bft) 100,00 %
19.06.2016 18:56 17,6 C 77 % 1018,5 hPa 0,0 l/m 7,4 km/h (2 Bft) W-SW 255 0 min 0,000 mm 0,0 UV-I 46 W/m 13,5 C 17,1 C 12,9 km/h (3 Bft) 100,00 %
19.06.2016 18:58 17,6 C 77 % 1018,5 hPa 0,0 l/m 9,1 km/h (2 Bft) W-NW 294 0 min 0,000 mm 0,0 UV-I 50 W/m 13,5 C 16,4 C 16,1 km/h (3 Bft) 100,00 %
19.06.2016 19:00 17,6 C 77 % 1018,5 hPa 0,0 l/m 6,8 km/h (2 Bft) W 260 0 min 0,076 mm 0,0 UV-I 56 W/m 13,5 C 17,4 C 12,9 km/h (3 Bft) 100,00 %
19.06.2016 19:02 17,6 C 77 % 1018,5 hPa 0,0 l/m 6,5 km/h (2 Bft) W-SW 238 0 min 0,000 mm 0,0 UV-I 63 W/m 13,5 C 17,6 C 11,3 km/h (2 Bft) 100,00 %
19.06.2016 19:04 17,6 C 77 % 1018,6 hPa 0,0 l/m 5,9 km/h (2 Bft) W-NW 290 0 min 0,000 mm 0,0 UV-I 69 W/m 13,5 C 17,6 C 9,7 km/h (2 Bft) 100,00 %
19.06.2016 19:06 17,6 C 77 % 1018,6 hPa 0,0 l/m 6,7 km/h (2 Bft) W 268 0 min 0,000 mm 0,0 UV-I 68 W/m 13,5 C 17,5 C 12,9 km/h (3 Bft) 100,00 %
19.06.2016 19:08 17,6 C 76 % 1018,6 hPa 0,0 l/m 6,5 km/h (2 Bft) W-SW 243 0 min 0,000 mm 0,0 UV-I 68 W/m 13,3 C 17,6 C 12,9 km/h (3 Bft) 97,87 %
19.06.2016 19:10 17,6 C 77 % 1018,6 hPa 0,0 l/m 8,2 km/h (2 Bft) W 273 0 min 0,000 mm 0,0 UV-I 64 W/m 13,5 C 16,7 C 14,5 km/h (3 Bft) 97,87 %
19.06.2016 19:12 17,6 C 77 % 1018,6 hPa 0,0 l/m 7,1 km/h (2 Bft) W-SW 253 0 min 0,000 mm 0,0 UV-I 59 W/m 13,5 C 17,3 C 12,9 km/h (3 Bft) 100,00 %
19.06.2016 19:14 17,6 C 77 % 1018,6 hPa 0,0 l/m 10,2 km/h (2 Bft) W-NW 287 0 min 0,000 mm 0,0 UV-I 54 W/m 13,5 C 15,9 C 19,3 km/h (3 Bft) 97,92 %
19.06.2016 19:16 17,6 C 77 % 1018,6 hPa 0,0 l/m 6,3 km/h (2 Bft) W 261 0 min 0,000 mm 0,0 UV-I 51 W/m 13,5 C 17,6 C 11,3 km/h (2 Bft) 97,87 %
19.06.2016 19:18 17,6 C 77 % 1018,6 hPa 0,0 l/m 6,8 km/h (2 Bft) W 265 0 min 0,000 mm 0,0 UV-I 49 W/m 13,5 C 17,4 C 16,1 km/h (3 Bft) 97,14 %
19.06.2016 19:20 17,5 C 77 % 1018,7 hPa 0,0 l/m 10,4 km/h (2 Bft) W-SW 252 0 min 0,000 mm 0,0 UV-I 48 W/m 13,4 C 15,7 C 16,1 km/h (3 Bft) 98,08 %
19.06.2016 19:22 17,4 C 77 % 1018,7 hPa 0,0 l/m 8,3 km/h (2 Bft) SW 235 0 min 0,000 mm 0,0 UV-I 47 W/m 13,3 C 16,5 C 12,9 km/h (3 Bft) 97,87 %
19.06.2016 19:24 17,4 C 77 % 1018,7 hPa 0,0 l/m 5,1 km/h (1 Bft) W-SW 242 0 min 0,000 mm 0,0 UV-I 46 W/m 13,3 C 17,4 C 9,7 km/h (2 Bft) 97,87 %
19.06.2016 19:26 17,4 C 78 % 1018,7 hPa 0,0 l/m 7,5 km/h (2 Bft) W-SW 246 0 min 0,000 mm 0,0 UV-I 47 W/m 13,5 C 16,9 C 12,9 km/h (3 Bft) 97,87 %
19.06.2016 19:28 17,4 C 78 % 1018,7 hPa 0,0 l/m 8,9 km/h (2 Bft) W 259 0 min 0,000 mm 0,0 UV-I 52 W/m 13,5 C 16,2 C 16,1 km/h (3 Bft) 95,74 %
19.06.2016 19:30 17,4 C 78 % 1018,8 hPa 0,0 l/m 9,7 km/h (2 Bft) W-SW 254 0 min 0,000 mm 0,0 UV-I 53 W/m 13,5 C 15,9 C 16,1 km/h (3 Bft) 96,00 %
19.06.2016 19:32 17,3 C 78 % 1018,7 hPa 0,0 l/m 7,9 km/h (2 Bft) W-SW 248 0 min 0,000 mm 0,0 UV-I 53 W/m 13,4 C 16,6 C 12,9 km/h (3 Bft) 97,87 %
19.06.2016 19:34 17,3 C 78 % 1018,8 hPa 0,0 l/m 9,3 km/h (2 Bft) W 261 0 min 0,000 mm 0,0 UV-I 53 W/m 13,4 C 15,9 C 14,5 km/h (3 Bft) 98,00 %
19.06.2016 19:36 17,3 C 78 % 1018,7 hPa 0,0 l/m 10,4 km/h (2 Bft) W-SW 247 0 min 0,000 mm 0,0 UV-I 53 W/m 13,4 C 15,5 C 16,1 km/h (3 Bft) 97,56 %
19.06.2016 19:38 17,3 C 78 % 1018,7 hPa 0,0 l/m 8,6 km/h (2 Bft) W-SW 251 0 min 0,000 mm 0,0 UV-I 51 W/m 13,4 C 16,2 C 12,9 km/h (3 Bft) 97,87 %
19.06.2016 19:40 17,3 C 79 % 1018,7 hPa 0,0 l/m 9,6 km/h (2 Bft) W-SW 258 0 min 0,000 mm 0,0 UV-I 47 W/m 13,6 C 15,8 C 12,9 km/h (3 Bft) 95,74 %
19.06.2016 19:42 17,2 C 79 % 1018,7 hPa 0,0 l/m 9,9 km/h (2 Bft) W-SW 242 0 min 0,000 mm 0,0 UV-I 41 W/m 13,5 C 15,6 C 12,9 km/h (3 Bft) 97,87 %
19.06.2016 19:44 17,2 C 78 % 1018,7 hPa 0,0 l/m 7,9 km/h (2 Bft) W-SW 242 0 min 0,000 mm 0,0 UV-I 38 W/m 13,3 C 16,5 C 12,9 km/h (3 Bft) 97,87 %
19.06.2016 19:46 17,2 C 79 % 1018,7 hPa 0,0 l/m 8,0 km/h (2 Bft) SW 234 0 min 0,000 mm 0,0 UV-I 35 W/m 13,5 C 16,4 C 11,3 km/h (2 Bft) 97,44 %
19.06.2016 19:48 17,2 C 79 % 1018,7 hPa 0,0 l/m 8,5 km/h (2 Bft) W-SW 248 0 min 0,000 mm 0,0 UV-I 33 W/m 13,5 C 16,2 C 12,9 km/h (3 Bft) 94,34 %
19.06.2016 19:50 17,1 C 79 % 1018,8 hPa 0,0 l/m 8,0 km/h (2 Bft) W 259 0 min 0,000 mm 0,0 UV-I 30 W/m 13,4 C 16,3 C 11,3 km/h (2 Bft) 97,87 %
19.06.2016 19:52 17,1 C 79 % 1018,8 hPa 0,0 l/m 7,6 km/h (2 Bft) W-SW 256 0 min 0,000 mm 0,0 UV-I 25 W/m 13,4 C 16,5 C 12,9 km/h (3 Bft) 100,00 %
19.06.2016 19:54 17,1 C 79 % 1018,8 hPa 0,0 l/m 7,8 km/h (2 Bft) SW 236 0 min 0,000 mm 0,0 UV-I 22 W/m 13,4 C 16,4 C 12,9 km/h (3 Bft) 100,00 %
19.06.2016 19:56 17,1 C 80 % 1018,8 hPa 0,0 l/m 8,3 km/h (2 Bft) W-SW 254 0 min 0,000 mm 0,0 UV-I 19 W/m 13,6 C 16,2 C 12,9 km/h (3 Bft) 100,00 %
19.06.2016 19:58 17,0 C 79 % 1018,8 hPa 0,0 l/m 8,7 km/h (2 Bft) W-SW 237 0 min 0,000 mm 0,0 UV-I 17 W/m 13,3 C 15,9 C 14,5 km/h (3 Bft) 100,00 %
19.06.2016 20:00 17,0 C 79 % 1018,8 hPa 0,0 l/m 9,8 km/h (2 Bft) W-SW 251 0 min 0,051 mm 0,0 UV-I 16 W/m 13,3 C 15,4 C 14,5 km/h (3 Bft) 97,87 %
19.06.2016 20:02 17,0 C 80 % 1018,8 hPa 0,0 l/m 11,1 km/h (2 Bft) W 263 0 min 0,000 mm 0,0 UV-I 14 W/m 13,5 C 14,9 C 16,1 km/h (3 Bft) 100,00 %
19.06.2016 20:04 16,9 C 80 % 1018,8 hPa 0,0 l/m 8,2 km/h (2 Bft) W-SW 240 0 min 0,000 mm 0,0 UV-I 15 W/m 13,4 C 16,0 C 14,5 km/h (3 Bft) 100,00 %
19.06.2016 20:06 16,9 C 80 % 1018,8 hPa 0,0 l/m 10,7 km/h (2 Bft) W-SW 240 0 min 0,000 mm 0,0 UV-I 16 W/m 13,4 C 14,9 C 16,1 km/h (3 Bft) 100,00 %
19.06.2016 20:08 16,9 C 80 % 1018,8 hPa 0,0 l/m 11,5 km/h (2 Bft) W-SW 244 0 min 0,000 mm 0,0 UV-I 16 W/m 13,4 C 14,6 C 17,7 km/h (3 Bft) 100,00 %
19.06.2016 20:10 16,9 C 80 % 1018,7 hPa 0,0 l/m 10,8 km/h (2 Bft) W-SW 237 0 min 0,000 mm 0,0 UV-I 16 W/m 13,4 C 14,9 C 16,1 km/h (3 Bft) 100,00 %
19.06.2016 20:12 16,8 C 80 % 1018,8 hPa 0,0 l/m 10,9 km/h (2 Bft) W 259 0 min 0,000 mm 0,0 UV-I 18 W/m 13,3 C 14,8 C 14,5 km/h (3 Bft) 100,00 %
19.06.2016 20:14 16,8 C 80 % 1018,8 hPa 0,0 l/m 8,8 km/h (2 Bft) SW 226 0 min 0,000 mm 0,0 UV-I 18 W/m 13,3 C 15,6 C 12,9 km/h (3 Bft) 100,00 %
19.06.2016 20:16 16,8 C 80 % 1018,8 hPa 0,0 l/m 10,6 km/h (2 Bft) W-SW 246 0 min 0,000 mm 0,0 UV-I 18 W/m 13,3 C 14,9 C 14,5 km/h (3 Bft) 100,00 %
19.06.2016 20:18 16,7 C 81 % 1018,8 hPa 0,0 l/m 10,7 km/h (2 Bft) W-SW 240 0 min 0,000 mm 0,0 UV-I 17 W/m 13,4 C 14,7 C 14,5 km/h (3 Bft) 100,00 %
19.06.2016 20:20 16,7 C 80 % 1018,9 hPa 0,0 l/m 6,8 km/h (2 Bft) SW 225 0 min 0,000 mm 0,0 UV-I 16 W/m 13,2 C 16,5 C 9,7 km/h (2 Bft) 97,87 %
19.06.2016 20:25 16,6 C 81 % 1019,0 hPa 0,0 l/m 8,0 km/h (2 Bft) SW 225 0 min 0,000 mm 0,0 UV-I 16 W/m 13,3 C 15,8 C 12,9 km/h (3 Bft) 97,37 %
19.06.2016 20:30 16,4 C 82 % 1019,0 hPa 0,0 l/m 9,7 km/h (2 Bft) SW 225 0 min 0,000 mm 0,0 UV-I 13 W/m 13,3 C 14,8 C 16,1 km/h (3 Bft) 98,25 %
19.06.2016 20:35 16,3 C 82 % 1019,0 hPa 0,0 l/m 9,7 km/h (2 Bft) SW 225 0 min 0,000 mm 0,0 UV-I 12 W/m 13,2 C 14,7 C 16,1 km/h (3 Bft) 100,00 %
19.06.2016 20:38 16,3 C 82 % 1018,9 hPa 0,0 l/m 12,0 km/h (2 Bft) W-SW 247 0 min 0,000 mm 0,0 UV-I 12 W/m 13,2 C 13,8 C 17,7 km/h (3 Bft) 99,29 %
19.06.2016 20:40 16,2 C 82 % 1019,0 hPa 0,0 l/m 9,9 km/h (2 Bft) S-SW 212 0 min 0,000 mm 0,0 UV-I 10 W/m 13,1 C 14,5 C 16,1 km/h (3 Bft) 97,87 %
19.06.2016 20:42 16,2 C 82 % 1019,0 hPa 0,0 l/m 12,5 km/h (3 Bft) SW 217 0 min 0,000 mm 0,0 UV-I 9 W/m 13,1 C 13,5 C 19,3 km/h (3 Bft) 100,00 %
19.06.2016 20:44 16,1 C 83 % 1019,0 hPa 0,0 l/m 10,3 km/h (2 Bft) SW 222 0 min 0,000 mm 0,0 UV-I 8 W/m 13,2 C 14,2 C 16,1 km/h (3 Bft) 97,87 %
19.06.2016 20:46 16,1 C 83 % 1019,0 hPa 0,0 l/m 10,6 km/h (2 Bft) SW 215 0 min 0,000 mm 0,0 UV-I 7 W/m 13,2 C 14,1 C 16,1 km/h (3 Bft) 97,37 %
19.06.2016 20:48 16,0 C 83 % 1019,0 hPa 0,0 l/m 12,6 km/h (3 Bft) SW 236 0 min 0,000 mm 0,0 UV-I 7 W/m 13,1 C 13,2 C 19,3 km/h (3 Bft) 100,00 %
19.06.2016 20:50 16,0 C 83 % 1019,0 hPa 0,0 l/m 15,5 km/h (3 Bft) SW 221 0 min 0,000 mm 0,0 UV-I 7 W/m 13,1 C 12,3 C 24,1 km/h (4 Bft) 100,00 %
19.06.2016 20:52 15,9 C 84 % 1019,0 hPa 0,0 l/m 13,5 km/h (3 Bft) SW 227 0 min 0,000 mm 0,0 UV-I 6 W/m 13,2 C 12,8 C 20,9 km/h (4 Bft) 100,00 %
19.06.2016 20:54 15,9 C 84 % 1019,0 hPa 0,0 l/m 15,4 km/h (3 Bft) SW 217 0 min 0,000 mm 0,0 UV-I 5 W/m 13,2 C 12,2 C 22,5 km/h (4 Bft) 97,87 %
19.06.2016 20:56 15,8 C 84 % 1019,0 hPa 0,0 l/m 14,1 km/h (3 Bft) W-SW 238 0 min 0,000 mm 0,0 UV-I 5 W/m 13,1 C 12,5 C 17,7 km/h (3 Bft) 100,00 %
19.06.2016 20:58 15,8 C 84 % 1019,2 hPa 0,0 l/m 15,7 km/h (3 Bft) W-SW 248 0 min 0,000 mm 0,0 UV-I 5 W/m 13,1 C 11,9 C 24,1 km/h (4 Bft) 97,87 %
19.06.2016 21:00 15,7 C 84 % 1019,1 hPa 0,0 l/m 13,7 km/h (3 Bft) W-SW 237 0 min 0,025 mm 0,0 UV-I 5 W/m 13,0 C 12,5 C 22,5 km/h (4 Bft) 93,62 %
19.06.2016 21:02 15,7 C 84 % 1019,1 hPa 0,0 l/m 15,9 km/h (3 Bft) S-SW 211 0 min 0,000 mm 0,0 UV-I 5 W/m 13,0 C 11,8 C 22,5 km/h (4 Bft) 100,00 %
19.06.2016 21:04 15,6 C 84 % 1019,2 hPa 0,0 l/m 12,4 km/h (3 Bft) SW 215 0 min 0,000 mm 0,0 UV-I 2 W/m 12,9 C 12,8 C 17,7 km/h (3 Bft) 100,00 %
19.06.2016 21:06 15,6 C 85 % 1019,2 hPa 0,0 l/m 13,2 km/h (3 Bft) W-NW 288 0 min 0,000 mm 0,0 UV-I 0 W/m 13,1 C 12,5 C 22,5 km/h (4 Bft) 100,00 %
19.06.2016 21:08 15,5 C 85 % 1019,2 hPa 0,0 l/m 12,5 km/h (3 Bft) SW 214 0 min 0,000 mm 0,0 UV-I 0 W/m 13,0 C 12,7 C 24,1 km/h (4 Bft) 97,87 %
19.06.2016 21:10 15,4 C 84 % 1019,3 hPa 0,0 l/m 14,6 km/h (3 Bft) SW 236 0 min 0,000 mm 0,0 UV-I 0 W/m 12,7 C 11,8 C 25,7 km/h (4 Bft) 100,00 %
19.06.2016 21:12 15,4 C 85 % 1019,3 hPa 0,0 l/m 13,8 km/h (3 Bft) SW 223 0 min 0,000 mm 0,0 UV-I 0 W/m 12,9 C 12,1 C 20,9 km/h (4 Bft) 97,87 %
19.06.2016 21:14 15,4 C 85 % 1019,3 hPa 0,0 l/m 16,2 km/h (3 Bft) S-SW 198 0 min 0,000 mm 0,0 UV-I 0 W/m 12,9 C 11,3 C 22,5 km/h (4 Bft) 100,00 %
19.06.2016 21:16 15,3 C 85 % 1019,4 hPa 0,0 l/m 13,1 km/h (3 Bft) W-SW 238 0 min 0,000 mm 0,0 UV-I 0 W/m 12,8 C 12,2 C 20,9 km/h (4 Bft) 98,00 %
19.06.2016 21:18 15,3 C 85 % 1019,4 hPa 0,0 l/m 10,3 km/h (2 Bft) SW 223 0 min 0,000 mm 0,0 UV-I 0 W/m 12,8 C 13,3 C 19,3 km/h (3 Bft) 98,00 %
19.06.2016 21:20 15,3 C 85 % 1019,5 hPa 0,0 l/m 15,3 km/h (3 Bft) W-SW 252 0 min 0,000 mm 0,0 UV-I 0 W/m 12,8 C 11,5 C 24,1 km/h (4 Bft) 97,87 %
19.06.2016 21:22 15,3 C 85 % 1019,5 hPa 0,0 l/m 16,2 km/h (3 Bft) SW 217 0 min 0,000 mm 0,0 UV-I 0 W/m 12,8 C 11,2 C 25,7 km/h (4 Bft) 94,59 %
19.06.2016 21:24 15,3 C 85 % 1019,5 hPa 0,0 l/m 13,3 km/h (3 Bft) SW 218 0 min 0,000 mm 0,0 UV-I 0 W/m 12,8 C 12,1 C 22,5 km/h (4 Bft) 95,74 %
19.06.2016 21:26 15,3 C 85 % 1019,6 hPa 0,0 l/m 14,7 km/h (3 Bft) S-SW 198 0 min 0,000 mm 0,0 UV-I 0 W/m 12,8 C 11,7 C 20,9 km/h (4 Bft) 97,87 %
19.06.2016 21:28 15,2 C 85 % 1019,6 hPa 0,0 l/m 11,6 km/h (2 Bft) SW 234 0 min 0,000 mm 0,0 UV-I 0 W/m 12,7 C 12,7 C 19,3 km/h (3 Bft) 97,92 %
19.06.2016 21:30 15,2 C 85 % 1019,7 hPa 0,0 l/m 15,5 km/h (3 Bft) SW 217 0 min 0,000 mm 0,0 UV-I 0 W/m 12,7 C 11,3 C 24,1 km/h (4 Bft) 97,87 %
19.06.2016 21:32 15,2 C 85 % 1019,7 hPa 0,0 l/m 12,4 km/h (3 Bft) W-SW 242 0 min 0,000 mm 0,0 UV-I 0 W/m 12,7 C 12,3 C 17,7 km/h (3 Bft) 96,00 %
19.06.2016 21:34 15,2 C 85 % 1019,7 hPa 0,0 l/m 14,3 km/h (3 Bft) W-SW 252 0 min 0,000 mm 0,0 UV-I 0 W/m 12,7 C 11,7 C 24,1 km/h (4 Bft) 95,74 %
19.06.2016 21:36 15,2 C 85 % 1019,8 hPa 0,0 l/m 15,8 km/h (3 Bft) SW 233 0 min 0,000 mm 0,0 UV-I 0 W/m 12,7 C 11,2 C 25,7 km/h (4 Bft) 95,74 %
19.06.2016 21:38 15,2 C 85 % 1019,7 hPa 0,0 l/m 13,4 km/h (3 Bft) W-SW 250 0 min 0,000 mm 0,0 UV-I 0 W/m 12,7 C 12,0 C 22,5 km/h (4 Bft) 95,74 %
19.06.2016 21:40 15,2 C 85 % 1019,7 hPa 0,0 l/m 17,9 km/h (3 Bft) SW 214 0 min 0,000 mm 0,0 UV-I 0 W/m 12,7 C 10,6 C 27,4 km/h (4 Bft) 95,74 %
19.06.2016 21:42 15,2 C 85 % 1019,7 hPa 0,0 l/m 16,0 km/h (3 Bft) SW 219 0 min 0,000 mm 0,0 UV-I 0 W/m 12,7 C 11,1 C 24,1 km/h (4 Bft) 95,74 %
19.06.2016 21:45 15,1 C 85 % 1019,7 hPa 0,0 l/m 16,1 km/h (3 Bft) SW 225 0 min 0,000 mm 0,0 UV-I 0 W/m 12,6 C 11,0 C 25,7 km/h (4 Bft) 100,00 %
19.06.2016 21:50 15,1 C 85 % 1019,7 hPa 0,0 l/m 14,4 km/h (3 Bft) W-SW 251 0 min 0,000 mm 0,0 UV-I 0 W/m 12,6 C 11,5 C 19,3 km/h (3 Bft) 97,31 %
19.06.2016 21:52 15,1 C 85 % 1019,7 hPa 0,0 l/m 15,7 km/h (3 Bft) W 264 0 min 0,000 mm 0,0 UV-I 0 W/m 12,6 C 11,1 C 24,1 km/h (4 Bft) 100,00 %
19.06.2016 21:54 15,0 C 85 % 1019,8 hPa 0,0 l/m 15,2 km/h (3 Bft) SW 214 0 min 0,000 mm 0,0 UV-I 0 W/m 12,5 C 11,1 C 22,5 km/h (4 Bft) 100,00 %
19.06.2016 21:56 15,0 C 85 % 1019,7 hPa 0,0 l/m 10,9 km/h (2 Bft) W-SW 241 0 min 0,000 mm 0,0 UV-I 0 W/m 12,5 C 12,7 C 17,7 km/h (3 Bft) 95,74 %
19.06.2016 21:58 15,0 C 85 % 1019,7 hPa 0,0 l/m 14,9 km/h (3 Bft) S-SW 193 0 min 0,000 mm 0,0 UV-I 0 W/m 12,5 C 11,2 C 24,1 km/h (4 Bft) 100,00 %
19.06.2016 22:00 14,9 C 86 % 1019,7 hPa 0,0 l/m 17,4 km/h (3 Bft) W 261 0 min 0,026 mm 0,0 UV-I 0 W/m 12,6 C 10,3 C 33,8 km/h (5 Bft) 97,87 %
19.06.2016 22:02 14,9 C 86 % 1019,7 hPa 0,0 l/m 14,9 km/h (3 Bft) W-SW 239 0 min 0,000 mm 0,0 UV-I 0 W/m 12,6 C 11,1 C 20,9 km/h (4 Bft) 98,00 %
19.06.2016 22:04 14,9 C 86 % 1019,8 hPa 0,0 l/m 14,1 km/h (3 Bft) SW 221 0 min 0,000 mm 0,0 UV-I 0 W/m 12,6 C 11,4 C 22,5 km/h (4 Bft) 97,87 %
19.06.2016 22:06 14,9 C 86 % 1019,9 hPa 0,0 l/m 14,4 km/h (3 Bft) SW 227 0 min 0,000 mm 0,0 UV-I 0 W/m 12,6 C 11,3 C 24,1 km/h (4 Bft) 100,00 %
19.06.2016 22:08 14,9 C 86 % 1019,9 hPa 0,0 l/m 15,2 km/h (3 Bft) SW 235 0 min 0,000 mm 0,0 UV-I 0 W/m 12,6 C 11,0 C 24,1 km/h (4 Bft) 100,00 %
19.06.2016 22:10 14,9 C 86 % 1019,9 hPa 0,0 l/m 12,7 km/h (3 Bft) W-SW 244 0 min 0,000 mm 0,0 UV-I 0 W/m 12,6 C 11,9 C 22,5 km/h (4 Bft) 100,00 %
19.06.2016 22:12 14,9 C 86 % 1019,9 hPa 0,0 l/m 8,0 km/h (2 Bft) SW 236 0 min 0,000 mm 0,0 UV-I 0 W/m 12,6 C 14,0 C 14,5 km/h (3 Bft) 100,00 %
19.06.2016 22:14 14,8 C 86 % 1019,9 hPa 0,0 l/m 12,8 km/h (3 Bft) W-SW 238 0 min 0,000 mm 0,0 UV-I 0 W/m 12,5 C 11,7 C 22,5 km/h (4 Bft) 100,00 %
19.06.2016 22:16 14,8 C 86 % 1020,0 hPa 0,0 l/m 13,8 km/h (3 Bft) W-SW 247 0 min 0,000 mm 0,0 UV-I 0 W/m 12,5 C 11,4 C 20,9 km/h (4 Bft) 100,00 %
19.06.2016 22:18 14,8 C 86 % 1020,1 hPa 0,0 l/m 9,7 km/h (2 Bft) W-SW 246 0 min 0,000 mm 0,0 UV-I 0 W/m 12,5 C 13,0 C 16,1 km/h (3 Bft) 100,00 %
19.06.2016 22:20 14,8 C 86 % 1020,1 hPa 0,0 l/m 11,9 km/h (2 Bft) SW 225 0 min 0,000 mm 0,0 UV-I 0 W/m 12,5 C 12,1 C 19,3 km/h (3 Bft) 97,87 %
19.06.2016 22:22 14,8 C 86 % 1020,1 hPa 0,0 l/m 14,6 km/h (3 Bft) SW 215 0 min 0,000 mm 0,0 UV-I 0 W/m 12,5 C 11,1 C 22,5 km/h (4 Bft) 95,74 %
19.06.2016 22:24 14,8 C 86 % 1020,1 hPa 0,0 l/m 13,5 km/h (3 Bft) SW 214 0 min 0,000 mm 0,0 UV-I 0 W/m 12,5 C 11,5 C 24,1 km/h (4 Bft) 100,00 %
19.06.2016 22:26 14,8 C 86 % 1020,1 hPa 0,0 l/m 14,1 km/h (3 Bft) W-SW 254 0 min 0,000 mm 0,0 UV-I 0 W/m 12,5 C 11,3 C 22,5 km/h (4 Bft) 95,74 %
19.06.2016 22:28 14,8 C 86 % 1020,1 hPa 0,0 l/m 10,3 km/h (2 Bft) S-SW 198 0 min 0,000 mm 0,0 UV-I 0 W/m 12,5 C 12,8 C 14,5 km/h (3 Bft) 100,00 %
19.06.2016 22:30 14,8 C 87 % 1020,1 hPa 0,0 l/m 11,8 km/h (2 Bft) W-SW 239 0 min 0,000 mm 0,0 UV-I 0 W/m 12,7 C 12,1 C 17,7 km/h (3 Bft) 100,00 %
19.06.2016 22:32 14,8 C 87 % 1020,0 hPa 0,0 l/m 13,9 km/h (3 Bft) W-SW 257 0 min 0,000 mm 0,0 UV-I 0 W/m 12,7 C 11,3 C 20,9 km/h (4 Bft) 100,00 %
19.06.2016 22:34 14,8 C 87 % 1020,0 hPa 0,0 l/m 14,6 km/h (3 Bft) W-SW 239 0 min 0,000 mm 0,0 UV-I 0 W/m 12,7 C 11,1 C 22,5 km/h (4 Bft) 100,00 %
19.06.2016 22:36 14,8 C 87 % 1020,0 hPa 0,0 l/m 12,7 km/h (3 Bft) W-SW 254 0 min 0,000 mm 0,0 UV-I 0 W/m 12,7 C 11,8 C 19,3 km/h (3 Bft) 100,00 %
19.06.2016 22:38 14,8 C 87 % 1020,0 hPa 0,0 l/m 16,0 km/h (3 Bft) W-SW 239 0 min 0,000 mm 0,0 UV-I 0 W/m 12,7 C 10,6 C 25,7 km/h (4 Bft) 100,00 %
19.06.2016 22:40 14,8 C 87 % 1020,1 hPa 0,0 l/m 11,6 km/h (2 Bft) W 261 0 min 0,000 mm 0,0 UV-I 0 W/m 12,7 C 12,2 C 20,9 km/h (4 Bft) 100,00 %
19.06.2016 22:42 14,8 C 87 % 1020,0 hPa 0,0 l/m 13,9 km/h (3 Bft) W-SW 252 0 min 0,000 mm 0,0 UV-I 0 W/m 12,7 C 11,3 C 24,1 km/h (4 Bft) 100,00 %
19.06.2016 22:44 14,8 C 87 % 1020,1 hPa 0,0 l/m 11,7 km/h (2 Bft) W-SW 257 0 min 0,000 mm 0,0 UV-I 0 W/m 12,7 C 12,2 C 17,7 km/h (3 Bft) 100,00 %
19.06.2016 22:46 14,7 C 87 % 1020,1 hPa 0,0 l/m 13,8 km/h (3 Bft) W-SW 256 0 min 0,000 mm 0,0 UV-I 0 W/m 12,6 C 11,2 C 19,3 km/h (3 Bft) 100,00 %
19.06.2016 22:48 14,7 C 87 % 1020,2 hPa 0,0 l/m 13,3 km/h (3 Bft) W-SW 254 0 min 0,000 mm 0,0 UV-I 0 W/m 12,6 C 11,4 C 19,3 km/h (3 Bft) 100,00 %
19.06.2016 22:50 14,7 C 87 % 1020,2 hPa 0,0 l/m 13,9 km/h (3 Bft) W-SW 258 0 min 0,000 mm 0,0 UV-I 0 W/m 12,6 C 11,2 C 17,7 km/h (3 Bft) 100,00 %
19.06.2016 22:52 14,7 C 88 % 1020,3 hPa 0,0 l/m 12,6 km/h (3 Bft) W-SW 257 0 min 0,000 mm 0,0 UV-I 0 W/m 12,7 C 11,7 C 19,3 km/h (3 Bft) 100,00 %
19.06.2016 22:54 14,7 C 88 % 1020,2 hPa 0,0 l/m 13,5 km/h (3 Bft) W-SW 248 0 min 0,000 mm 0,0 UV-I 0 W/m 12,7 C 11,4 C 19,3 km/h (3 Bft) 100,00 %
19.06.2016 22:56 14,7 C 88 % 1020,2 hPa 0,0 l/m 14,1 km/h (3 Bft) W-SW 248 0 min 0,000 mm 0,0 UV-I 0 W/m 12,7 C 11,1 C 22,5 km/h (4 Bft) 100,00 %
19.06.2016 22:58 14,7 C 88 % 1020,3 hPa 0,0 l/m 13,3 km/h (3 Bft) W 272 0 min 0,000 mm 0,0 UV-I 0 W/m 12,7 C 11,4 C 20,9 km/h (4 Bft) 98,00 %
19.06.2016 23:00 14,7 C 88 % 1020,3 hPa 0,0 l/m 12,6 km/h (3 Bft) W-SW 247 0 min 0,000 mm 0,0 UV-I 0 W/m 12,7 C 11,7 C 19,3 km/h (3 Bft) 100,00 %
19.06.2016 23:02 14,7 C 88 % 1020,3 hPa 0,0 l/m 9,0 km/h (2 Bft) W 264 0 min 0,025 mm 0,0 UV-I 0 W/m 12,7 C 13,3 C 14,5 km/h (3 Bft) 100,00 %
19.06.2016 23:04 14,6 C 88 % 1020,3 hPa 0,0 l/m 11,5 km/h (2 Bft) W-SW 256 0 min 0,000 mm 0,0 UV-I 0 W/m 12,6 C 12,0 C 20,9 km/h (4 Bft) 100,00 %
19.06.2016 23:06 14,7 C 88 % 1020,4 hPa 0,0 l/m 10,9 km/h (2 Bft) W-SW 244 0 min 0,000 mm 0,0 UV-I 0 W/m 12,7 C 12,4 C 17,7 km/h (3 Bft) 100,00 %
19.06.2016 23:08 14,7 C 88 % 1020,3 hPa 0,0 l/m 9,3 km/h (2 Bft) W-SW 255 0 min 0,000 mm 0,0 UV-I 0 W/m 12,7 C 13,1 C 14,5 km/h (3 Bft) 97,87 %
19.06.2016 23:10 14,6 C 88 % 1020,3 hPa 0,0 l/m 9,4 km/h (2 Bft) W-SW 246 0 min 0,000 mm 0,0 UV-I 0 W/m 12,6 C 13,0 C 16,1 km/h (3 Bft) 100,00 %
19.06.2016 23:12 14,6 C 88 % 1020,3 hPa 0,0 l/m 12,8 km/h (3 Bft) W-SW 241 0 min 0,000 mm 0,0 UV-I 0 W/m 12,6 C 11,5 C 17,7 km/h (3 Bft) 98,00 %
19.06.2016 23:14 14,6 C 88 % 1020,3 hPa 0,0 l/m 12,7 km/h (3 Bft) W-SW 242 0 min 0,000 mm 0,0 UV-I 0 W/m 12,6 C 11,5 C 19,3 km/h (3 Bft) 100,00 %
19.06.2016 23:16 14,6 C 88 % 1020,3 hPa 0,0 l/m 11,0 km/h (2 Bft) W-SW 246 0 min 0,000 mm 0,0 UV-I 0 W/m 12,6 C 12,2 C 16,1 km/h (3 Bft) 100,00 %
19.06.2016 23:18 14,6 C 89 % 1020,3 hPa 0,0 l/m 10,9 km/h (2 Bft) W 261 0 min 0,000 mm 0,0 UV-I 0 W/m 12,8 C 12,3 C 17,7 km/h (3 Bft) 97,87 %
19.06.2016 23:20 14,6 C 89 % 1020,3 hPa 0,0 l/m 10,7 km/h (2 Bft) W-SW 250 0 min 0,000 mm 0,0 UV-I 0 W/m 12,8 C 12,4 C 16,1 km/h (3 Bft) 95,74 %
19.06.2016 23:22 14,6 C 89 % 1020,1 hPa 0,0 l/m 11,8 km/h (2 Bft) W-SW 240 0 min 0,000 mm 0,0 UV-I 0 W/m 12,8 C 11,9 C 17,7 km/h (3 Bft) 97,87 %
19.06.2016 23:24 14,6 C 89 % 1020,1 hPa 0,0 l/m 13,4 km/h (3 Bft) W-SW 256 0 min 0,000 mm 0,0 UV-I 0 W/m 12,8 C 11,3 C 17,7 km/h (3 Bft) 97,87 %
19.06.2016 23:26 14,6 C 90 % 1020,1 hPa 0,0 l/m 10,9 km/h (2 Bft) SW 236 0 min 0,000 mm 0,0 UV-I 0 W/m 13,0 C 12,3 C 16,1 km/h (3 Bft) 97,96 %
19.06.2016 23:28 14,6 C 89 % 1020,1 hPa 0,0 l/m 12,7 km/h (3 Bft) W-SW 241 0 min 0,000 mm 0,0 UV-I 0 W/m 12,8 C 11,5 C 20,9 km/h (4 Bft) 95,65 %
19.06.2016 23:30 14,6 C 90 % 1020,1 hPa 0,0 l/m 12,9 km/h (3 Bft) W-SW 246 0 min 0,000 mm 0,0 UV-I 0 W/m 13,0 C 11,5 C 17,7 km/h (3 Bft) 96,77 %
19.06.2016 23:32 14,5 C 90 % 1020,1 hPa 0,0 l/m 9,9 km/h (2 Bft) W-SW 250 0 min 0,000 mm 0,0 UV-I 0 W/m 12,9 C 12,6 C 14,5 km/h (3 Bft) 98,00 %
19.06.2016 23:34 14,5 C 90 % 1020,0 hPa 0,0 l/m 11,3 km/h (2 Bft) W-SW 250 0 min 0,000 mm 0,0 UV-I 0 W/m 12,9 C 12,0 C 19,3 km/h (3 Bft) 95,74 %
19.06.2016 23:36 14,4 C 90 % 1020,0 hPa 0,0 l/m 10,9 km/h (2 Bft) W-SW 242 0 min 0,000 mm 0,0 UV-I 0 W/m 12,8 C 12,0 C 16,1 km/h (3 Bft) 95,74 %
19.06.2016 23:38 14,4 C 90 % 1020,1 hPa 0,0 l/m 12,8 km/h (3 Bft) W 263 0 min 0,000 mm 0,0 UV-I 0 W/m 12,8 C 11,3 C 16,1 km/h (3 Bft) 97,87 %
19.06.2016 23:40 14,4 C 90 % 1020,1 hPa 0,0 l/m 9,6 km/h (2 Bft) SW 227 0 min 0,000 mm 0,0 UV-I 0 W/m 12,8 C 12,6 C 16,1 km/h (3 Bft) 98,00 %
19.06.2016 23:42 14,4 C 90 % 1020,0 hPa 0,0 l/m 9,2 km/h (2 Bft) W-SW 244 0 min 0,000 mm 0,0 UV-I 0 W/m 12,8 C 12,8 C 12,9 km/h (3 Bft) 97,87 %
19.06.2016 23:44 14,4 C 91 % 1020,0 hPa 0,0 l/m 8,3 km/h (2 Bft) W-SW 246 0 min 0,000 mm 0,0 UV-I 0 W/m 12,9 C 13,3 C 12,9 km/h (3 Bft) 97,87 %
19.06.2016 23:46 14,3 C 91 % 1020,0 hPa 0,0 l/m 12,6 km/h (3 Bft) W 261 0 min 0,000 mm 0,0 UV-I 0 W/m 12,8 C 11,2 C 16,1 km/h (3 Bft) 97,96 %
19.06.2016 23:48 14,3 C 91 % 1019,9 hPa 0,0 l/m 11,4 km/h (2 Bft) W 269 0 min 0,000 mm 0,0 UV-I 0 W/m 12,8 C 11,7 C 16,1 km/h (3 Bft) 95,74 %
19.06.2016 23:50 14,3 C 91 % 1019,8 hPa 0,0 l/m 13,5 km/h (3 Bft) W-SW 240 0 min 0,000 mm 0,0 UV-I 0 W/m 12,8 C 10,9 C 17,7 km/h (3 Bft) 97,22 %
19.06.2016 23:52 14,3 C 91 % 1019,8 hPa 0,0 l/m 11,8 km/h (2 Bft) W-SW 242 0 min 0,000 mm 0,0 UV-I 0 W/m 12,8 C 11,5 C 17,7 km/h (3 Bft) 97,87 %
19.06.2016 23:54 14,3 C 91 % 1019,8 hPa 0,0 l/m 11,7 km/h (2 Bft) SW 227 0 min 0,000 mm 0,0 UV-I 0 W/m 12,8 C 11,6 C 19,3 km/h (3 Bft) 100,00 %
19.06.2016 23:56 14,3 C 91 % 1019,8 hPa 0,0 l/m 11,4 km/h (2 Bft) W 269 0 min 0,000 mm 0,0 UV-I 0 W/m 12,8 C 11,7 C 16,1 km/h (3 Bft) 100,00 %
19.06.2016 23:58 14,3 C 91 % 1019,8 hPa 0,0 l/m 10,8 km/h (2 Bft) W-SW 248 0 min 0,000 mm 0,0 UV-I 0 W/m 12,8 C 12,0 C 17,7 km/h (3 Bft) 100,00 %
_ Min-Zeit 04:02 15:40 00:32 - 00:00 - - - - - - 04:06 04:16 00:00 00:02
Minimum _ 12,9 C 65 % 1017,1 hPa - 0,0 km/h (0 Bft) - - - - - - 11,8 C 9,6 C 0,0 km/h (0 Bft) 6,25 %
_ Max-Zeit 15:20 01:34 23:06 00:00 21:40 - - 12:10 15:00 12:50 14:42 13:36 15:14 22:00 00:00
Maximum _ 18,9 C 94 % 1020,4 hPa 0,0 l/m 17,9 km/h
SW (3 Bft)
- - 2 min 0,356 mm 5,6 UV-I 860 W/m 14,5 C 18,8 C 33,8 km/h
W-SW (5 Bft)
100,00 %
Durchschnitt _ 15,4 C 85 % 1018,7 hPa #0,0 l/m 6,9 km/h (2 Bft) W-SW - #2:42 h #2,159 mm 2,1 UV-I 223 W/m 12,8 C 14,5 C 11,7 km/h (2 Bft) 98,08 %